Wetterdaten: Sonntag, 04.09.2016
Datum Zeit Temp. A. Feuchte A. Luftdruck Regen Wind Richtung Richtung Sonnenschein ET UV Solar Taupunkt Windchill Windben Empfang
04.09.2016 00:00 18,6 C 81 % 1016,3 hPa 0,0 l/m 7,4 km/h (2 Bft) S 173 0 min 0,000 mm 0,0 UV-I 0 W/m 15,3 C 18,1 C 9,7 km/h (2 Bft) 98,00 %
04.09.2016 00:02 18,7 C 81 % 1016,3 hPa 0,0 l/m 5,4 km/h (1 Bft) S 182 0 min 0,000 mm 0,0 UV-I 0 W/m 15,4 C 18,7 C 9,7 km/h (2 Bft) 97,83 %
04.09.2016 00:04 18,7 C 81 % 1016,3 hPa 0,0 l/m 5,8 km/h (2 Bft) S 180 0 min 0,000 mm 0,0 UV-I 0 W/m 15,4 C 18,7 C 9,7 km/h (2 Bft) 97,87 %
04.09.2016 00:06 18,7 C 81 % 1016,3 hPa 0,0 l/m 5,0 km/h (1 Bft) S 185 0 min 0,000 mm 0,0 UV-I 0 W/m 15,4 C 18,7 C 6,4 km/h (2 Bft) 94,74 %
04.09.2016 00:08 18,7 C 81 % 1016,3 hPa 0,0 l/m 5,0 km/h (1 Bft) S 186 0 min 0,000 mm 0,0 UV-I 0 W/m 15,4 C 18,7 C 6,4 km/h (2 Bft) 100,00 %
04.09.2016 00:10 18,7 C 81 % 1016,3 hPa 0,0 l/m 5,0 km/h (1 Bft) S 180 0 min 0,000 mm 0,0 UV-I 0 W/m 15,4 C 18,7 C 8,0 km/h (2 Bft) 100,00 %
04.09.2016 00:12 18,7 C 82 % 1016,4 hPa 0,0 l/m 4,5 km/h (1 Bft) S 182 0 min 0,000 mm 0,0 UV-I 0 W/m 15,6 C 18,7 C 6,4 km/h (2 Bft) 97,87 %
04.09.2016 00:14 18,6 C 82 % 1016,3 hPa 0,0 l/m 5,0 km/h (1 Bft) S 184 0 min 0,000 mm 0,0 UV-I 0 W/m 15,5 C 18,6 C 8,0 km/h (2 Bft) 100,00 %
04.09.2016 00:16 18,6 C 82 % 1016,3 hPa 0,0 l/m 4,9 km/h (1 Bft) S 184 0 min 0,000 mm 0,0 UV-I 0 W/m 15,5 C 18,6 C 6,4 km/h (2 Bft) 100,00 %
04.09.2016 00:18 18,6 C 82 % 1016,3 hPa 0,0 l/m 5,6 km/h (1 Bft) S 179 0 min 0,000 mm 0,0 UV-I 0 W/m 15,5 C 18,6 C 9,7 km/h (2 Bft) 100,00 %
04.09.2016 00:20 18,6 C 82 % 1016,3 hPa 0,0 l/m 3,9 km/h (1 Bft) S 180 0 min 0,000 mm 0,0 UV-I 0 W/m 15,5 C 18,6 C 4,8 km/h (1 Bft) 100,00 %
04.09.2016 00:22 18,6 C 82 % 1016,3 hPa 0,0 l/m 4,2 km/h (1 Bft) S 177 0 min 0,000 mm 0,0 UV-I 0 W/m 15,5 C 18,6 C 6,4 km/h (2 Bft) 100,00 %
04.09.2016 00:24 18,6 C 82 % 1016,3 hPa 0,0 l/m 5,0 km/h (1 Bft) S 186 0 min 0,000 mm 0,0 UV-I 0 W/m 15,5 C 18,6 C 8,0 km/h (2 Bft) 97,87 %
04.09.2016 00:26 18,6 C 81 % 1016,2 hPa 0,0 l/m 4,2 km/h (1 Bft) S 185 0 min 0,000 mm 0,0 UV-I 0 W/m 15,3 C 18,6 C 6,4 km/h (2 Bft) 97,87 %
04.09.2016 00:28 18,6 C 81 % 1016,3 hPa 0,0 l/m 5,8 km/h (2 Bft) S 188 0 min 0,000 mm 0,0 UV-I 0 W/m 15,3 C 18,6 C 8,0 km/h (2 Bft) 97,87 %
04.09.2016 00:30 18,6 C 81 % 1016,3 hPa 0,0 l/m 5,5 km/h (1 Bft) S 181 0 min 0,000 mm 0,0 UV-I 0 W/m 15,3 C 18,6 C 8,0 km/h (2 Bft) 95,74 %
04.09.2016 00:32 18,6 C 82 % 1016,2 hPa 0,0 l/m 3,8 km/h (1 Bft) S 178 0 min 0,000 mm 0,0 UV-I 0 W/m 15,5 C 18,6 C 6,4 km/h (2 Bft) 97,87 %
04.09.2016 00:34 18,4 C 82 % 1016,2 hPa 0,0 l/m 3,4 km/h (1 Bft) S 180 0 min 0,000 mm 0,0 UV-I 0 W/m 15,3 C 18,4 C 4,8 km/h (1 Bft) 91,49 %
04.09.2016 00:36 18,4 C 82 % 1016,2 hPa 0,0 l/m 3,7 km/h (1 Bft) S 180 0 min 0,000 mm 0,0 UV-I 0 W/m 15,3 C 18,4 C 4,8 km/h (1 Bft) 97,87 %
04.09.2016 00:38 18,3 C 83 % 1016,2 hPa 0,0 l/m 3,3 km/h (1 Bft) S 180 0 min 0,000 mm 0,0 UV-I 0 W/m 15,4 C 18,3 C 4,8 km/h (1 Bft) 97,22 %
04.09.2016 00:40 18,2 C 83 % 1016,2 hPa 0,0 l/m 3,9 km/h (1 Bft) S 180 0 min 0,000 mm 0,0 UV-I 0 W/m 15,3 C 18,2 C 6,4 km/h (2 Bft) 97,87 %
04.09.2016 00:42 18,2 C 83 % 1016,1 hPa 0,0 l/m 4,4 km/h (1 Bft) S 178 0 min 0,000 mm 0,0 UV-I 0 W/m 15,3 C 18,2 C 6,4 km/h (2 Bft) 95,74 %
04.09.2016 00:44 18,2 C 83 % 1016,1 hPa 0,0 l/m 4,6 km/h (1 Bft) S 177 0 min 0,000 mm 0,0 UV-I 0 W/m 15,3 C 18,2 C 6,4 km/h (2 Bft) 97,87 %
04.09.2016 00:46 18,3 C 83 % 1016,1 hPa 0,0 l/m 5,5 km/h (1 Bft) S 175 0 min 0,000 mm 0,0 UV-I 0 W/m 15,4 C 18,3 C 8,0 km/h (2 Bft) 97,87 %
04.09.2016 00:48 18,3 C 83 % 1016,1 hPa 0,0 l/m 7,0 km/h (2 Bft) S-SO 167 0 min 0,000 mm 0,0 UV-I 0 W/m 15,4 C 18,0 C 9,7 km/h (2 Bft) 93,62 %
04.09.2016 00:50 18,3 C 83 % 1016,0 hPa 0,0 l/m 5,5 km/h (1 Bft) S-SW 199 0 min 0,000 mm 0,0 UV-I 0 W/m 15,4 C 18,3 C 8,0 km/h (2 Bft) 95,74 %
04.09.2016 00:52 18,3 C 83 % 1016,0 hPa 0,0 l/m 3,9 km/h (1 Bft) S-SW 193 0 min 0,000 mm 0,0 UV-I 0 W/m 15,4 C 18,3 C 6,4 km/h (2 Bft) 98,00 %
04.09.2016 00:54 18,4 C 83 % 1016,0 hPa 0,0 l/m 5,0 km/h (1 Bft) S 188 0 min 0,000 mm 0,0 UV-I 0 W/m 15,5 C 18,4 C 6,4 km/h (2 Bft) 93,62 %
04.09.2016 00:56 18,3 C 83 % 1016,0 hPa 0,0 l/m 3,7 km/h (1 Bft) S 188 0 min 0,000 mm 0,0 UV-I 0 W/m 15,4 C 18,3 C 6,4 km/h (2 Bft) 97,87 %
04.09.2016 00:58 18,4 C 83 % 1016,0 hPa 0,0 l/m 4,2 km/h (1 Bft) S 186 0 min 0,000 mm 0,0 UV-I 0 W/m 15,5 C 18,4 C 6,4 km/h (2 Bft) 97,87 %
04.09.2016 01:00 18,4 C 83 % 1016,0 hPa 0,0 l/m 4,7 km/h (1 Bft) S-SW 203 0 min 0,025 mm 0,0 UV-I 0 W/m 15,5 C 18,4 C 6,4 km/h (2 Bft) 100,00 %
04.09.2016 01:01 18,4 C 83 % 1016,0 hPa 0,0 l/m 3,6 km/h (1 Bft) S-SW 203 0 min 0,000 mm 0,0 UV-I 0 W/m 15,5 C 18,4 C 4,8 km/h (1 Bft) 97,87 %
04.09.2016 01:04 18,3 C 83 % 1016,0 hPa 0,0 l/m 4,4 km/h (1 Bft) S-SW 202 0 min 0,000 mm 0,0 UV-I 0 W/m 15,4 C 18,3 C 6,4 km/h (2 Bft) 97,87 %
04.09.2016 01:06 18,3 C 83 % 1015,9 hPa 0,0 l/m 4,4 km/h (1 Bft) S 186 0 min 0,000 mm 0,0 UV-I 0 W/m 15,4 C 18,3 C 8,0 km/h (2 Bft) 97,87 %
04.09.2016 01:08 18,3 C 83 % 1016,0 hPa 0,0 l/m 4,8 km/h (1 Bft) S 173 0 min 0,000 mm 0,0 UV-I 0 W/m 15,4 C 18,3 C 8,0 km/h (2 Bft) 100,00 %
04.09.2016 01:10 18,3 C 83 % 1015,9 hPa 0,0 l/m 4,8 km/h (1 Bft) S 177 0 min 0,000 mm 0,0 UV-I 0 W/m 15,4 C 18,3 C 8,0 km/h (2 Bft) 100,00 %
04.09.2016 01:12 18,3 C 83 % 1015,9 hPa 0,0 l/m 5,3 km/h (1 Bft) S 179 0 min 0,000 mm 0,0 UV-I 0 W/m 15,4 C 18,3 C 6,4 km/h (2 Bft) 97,87 %
04.09.2016 01:14 18,3 C 83 % 1015,9 hPa 0,0 l/m 4,6 km/h (1 Bft) S 180 0 min 0,000 mm 0,0 UV-I 0 W/m 15,4 C 18,3 C 6,4 km/h (2 Bft) 100,00 %
04.09.2016 01:16 18,3 C 83 % 1015,9 hPa 0,0 l/m 4,9 km/h (1 Bft) S 184 0 min 0,000 mm 0,0 UV-I 0 W/m 15,4 C 18,3 C 6,4 km/h (2 Bft) 97,87 %
04.09.2016 01:18 18,3 C 84 % 1015,9 hPa 0,0 l/m 3,9 km/h (1 Bft) S 184 0 min 0,000 mm 0,0 UV-I 0 W/m 15,5 C 18,3 C 6,4 km/h (2 Bft) 97,87 %
04.09.2016 01:20 18,2 C 84 % 1016,0 hPa 0,0 l/m 5,3 km/h (1 Bft) S-SW 192 0 min 0,000 mm 0,0 UV-I 0 W/m 15,4 C 18,2 C 6,4 km/h (2 Bft) 100,00 %
04.09.2016 01:22 18,2 C 84 % 1015,9 hPa 0,0 l/m 4,3 km/h (1 Bft) S 191 0 min 0,000 mm 0,0 UV-I 0 W/m 15,4 C 18,2 C 8,0 km/h (2 Bft) 97,87 %
04.09.2016 01:24 18,2 C 84 % 1016,0 hPa 0,0 l/m 3,9 km/h (1 Bft) S 191 0 min 0,000 mm 0,0 UV-I 0 W/m 15,4 C 18,2 C 4,8 km/h (1 Bft) 97,87 %
04.09.2016 01:26 18,2 C 84 % 1015,9 hPa 0,0 l/m 4,5 km/h (1 Bft) S 182 0 min 0,000 mm 0,0 UV-I 0 W/m 15,4 C 18,2 C 6,4 km/h (2 Bft) 97,87 %
04.09.2016 01:28 18,2 C 84 % 1015,9 hPa 0,0 l/m 4,4 km/h (1 Bft) S 181 0 min 0,000 mm 0,0 UV-I 0 W/m 15,4 C 18,2 C 6,4 km/h (2 Bft) 97,87 %
04.09.2016 01:30 18,2 C 85 % 1015,9 hPa 0,0 l/m 5,3 km/h (1 Bft) S 181 0 min 0,000 mm 0,0 UV-I 0 W/m 15,6 C 18,2 C 8,0 km/h (2 Bft) 100,00 %
04.09.2016 01:32 18,2 C 84 % 1016,0 hPa 0,0 l/m 5,2 km/h (1 Bft) S 181 0 min 0,000 mm 0,0 UV-I 0 W/m 15,4 C 18,2 C 6,4 km/h (2 Bft) 100,00 %
04.09.2016 01:34 18,2 C 84 % 1016,0 hPa 0,0 l/m 4,6 km/h (1 Bft) S 180 0 min 0,000 mm 0,0 UV-I 0 W/m 15,4 C 18,2 C 6,4 km/h (2 Bft) 95,74 %
04.09.2016 01:36 18,2 C 84 % 1015,9 hPa 0,0 l/m 4,8 km/h (1 Bft) S 182 0 min 0,000 mm 0,0 UV-I 0 W/m 15,4 C 18,2 C 6,4 km/h (2 Bft) 100,00 %
04.09.2016 01:38 18,2 C 84 % 1015,9 hPa 0,0 l/m 5,9 km/h (2 Bft) S 171 0 min 0,000 mm 0,0 UV-I 0 W/m 15,4 C 18,2 C 8,0 km/h (2 Bft) 100,00 %
04.09.2016 01:40 18,2 C 84 % 1015,9 hPa 0,0 l/m 5,4 km/h (1 Bft) S 184 0 min 0,000 mm 0,0 UV-I 0 W/m 15,4 C 18,2 C 8,0 km/h (2 Bft) 100,00 %
04.09.2016 01:42 18,2 C 84 % 1015,9 hPa 0,0 l/m 5,0 km/h (1 Bft) S 184 0 min 0,000 mm 0,0 UV-I 0 W/m 15,4 C 18,2 C 8,0 km/h (2 Bft) 97,87 %
04.09.2016 01:44 18,2 C 84 % 1015,9 hPa 0,0 l/m 3,7 km/h (1 Bft) S 184 0 min 0,000 mm 0,0 UV-I 0 W/m 15,4 C 18,2 C 4,8 km/h (1 Bft) 100,00 %
04.09.2016 01:46 18,2 C 84 % 1015,9 hPa 0,0 l/m 3,2 km/h (1 Bft) S 184 0 min 0,000 mm 0,0 UV-I 0 W/m 15,4 C 18,2 C 6,4 km/h (2 Bft) 97,87 %
04.09.2016 01:48 18,2 C 84 % 1015,9 hPa 0,0 l/m 2,9 km/h (1 Bft) S 184 0 min 0,000 mm 0,0 UV-I 0 W/m 15,4 C 18,2 C 4,8 km/h (1 Bft) 100,00 %
04.09.2016 01:50 18,2 C 84 % 1015,9 hPa 0,0 l/m 2,5 km/h (1 Bft) S 184 0 min 0,000 mm 0,0 UV-I 0 W/m 15,4 C 18,2 C 3,2 km/h (1 Bft) 100,00 %
04.09.2016 01:52 18,2 C 84 % 1015,8 hPa 0,0 l/m 1,8 km/h (1 Bft) S 184 0 min 0,000 mm 0,0 UV-I 0 W/m 15,4 C 18,2 C 3,2 km/h (1 Bft) 100,00 %
04.09.2016 01:54 18,2 C 84 % 1015,8 hPa 0,0 l/m 1,2 km/h (1 Bft) S 184 0 min 0,000 mm 0,0 UV-I 0 W/m 15,4 C 18,2 C 3,2 km/h (1 Bft) 100,00 %
04.09.2016 01:56 18,2 C 84 % 1015,8 hPa 0,0 l/m 1,2 km/h (1 Bft) S 184 0 min 0,000 mm 0,0 UV-I 0 W/m 15,4 C 18,2 C 3,2 km/h (1 Bft) 100,00 %
04.09.2016 01:58 18,2 C 84 % 1015,8 hPa 0,0 l/m 0,4 km/h (0 Bft) S 184 0 min 0,000 mm 0,0 UV-I 0 W/m 15,4 C 18,2 C 1,6 km/h (1 Bft) 100,00 %
04.09.2016 02:00 18,1 C 84 % 1015,7 hPa 0,0 l/m 0,0 km/h (0 Bft) S 184 0 min 0,000 mm 0,0 UV-I 0 W/m 15,4 C 18,1 C 0,0 km/h (0 Bft) 100,00 %
04.09.2016 02:02 18,0 C 84 % 1015,8 hPa 0,0 l/m 0,0 km/h (0 Bft) S 184 0 min 0,000 mm 0,0 UV-I 0 W/m 15,3 C 18,0 C 0,0 km/h (0 Bft) 100,00 %
04.09.2016 02:04 17,9 C 85 % 1015,8 hPa 0,0 l/m 0,0 km/h (0 Bft) S 184 0 min 0,000 mm 0,0 UV-I 0 W/m 15,3 C 17,9 C 0,0 km/h (0 Bft) 100,00 %
04.09.2016 02:06 17,8 C 86 % 1015,8 hPa 0,0 l/m 0,4 km/h (0 Bft) S 184 0 min 0,000 mm 0,0 UV-I 0 W/m 15,4 C 17,8 C 1,6 km/h (1 Bft) 95,74 %
04.09.2016 02:08 17,6 C 86 % 1015,8 hPa 0,0 l/m 0,0 km/h (0 Bft) S 184 0 min 0,000 mm 0,0 UV-I 0 W/m 15,2 C 17,6 C 1,6 km/h (1 Bft) 97,87 %
04.09.2016 02:10 17,4 C 87 % 1015,8 hPa 0,0 l/m 0,0 km/h (0 Bft) S 184 0 min 0,000 mm 0,0 UV-I 0 W/m 15,2 C 17,4 C 0,0 km/h (0 Bft) 97,87 %
04.09.2016 02:12 17,3 C 88 % 1015,8 hPa 0,0 l/m 0,0 km/h (0 Bft) S 184 0 min 0,000 mm 0,0 UV-I 0 W/m 15,3 C 17,3 C 0,0 km/h (0 Bft) 100,00 %
04.09.2016 02:14 17,2 C 88 % 1015,8 hPa 0,0 l/m 0,0 km/h (0 Bft) S 184 0 min 0,000 mm 0,0 UV-I 0 W/m 15,2 C 17,2 C 0,0 km/h (0 Bft) 97,87 %
04.09.2016 02:16 17,2 C 88 % 1015,8 hPa 0,0 l/m 0,0 km/h (0 Bft) S 184 0 min 0,000 mm 0,0 UV-I 0 W/m 15,2 C 17,2 C 0,0 km/h (0 Bft) 95,74 %
04.09.2016 02:18 17,1 C 88 % 1015,8 hPa 0,0 l/m 0,0 km/h (0 Bft) S 184 0 min 0,000 mm 0,0 UV-I 0 W/m 15,1 C 17,1 C 0,0 km/h (0 Bft) 97,87 %
04.09.2016 02:20 17,1 C 88 % 1015,8 hPa 0,0 l/m 0,0 km/h (0 Bft) S 184 0 min 0,000 mm 0,0 UV-I 0 W/m 15,1 C 17,1 C 0,0 km/h (0 Bft) 97,87 %
04.09.2016 02:22 17,2 C 88 % 1015,8 hPa 0,0 l/m 0,0 km/h (0 Bft) S 184 0 min 0,000 mm 0,0 UV-I 0 W/m 15,2 C 17,2 C 0,0 km/h (0 Bft) 100,00 %
04.09.2016 02:24 17,2 C 88 % 1015,8 hPa 0,0 l/m 0,0 km/h (0 Bft) S 184 0 min 0,000 mm 0,0 UV-I 0 W/m 15,2 C 17,2 C 0,0 km/h (0 Bft) 94,29 %
04.09.2016 02:26 17,2 C 88 % 1015,8 hPa 0,0 l/m 0,0 km/h (0 Bft) S 184 0 min 0,000 mm 0,0 UV-I 0 W/m 15,2 C 17,2 C 0,0 km/h (0 Bft) 94,00 %
04.09.2016 02:28 17,2 C 88 % 1015,8 hPa 0,0 l/m 0,2 km/h (0 Bft) S 184 0 min 0,000 mm 0,0 UV-I 0 W/m 15,2 C 17,2 C 1,6 km/h (1 Bft) 97,92 %
04.09.2016 02:30 17,2 C 89 % 1015,9 hPa 0,0 l/m 0,9 km/h (0 Bft) S 184 0 min 0,000 mm 0,0 UV-I 0 W/m 15,4 C 17,2 C 1,6 km/h (1 Bft) 97,87 %
04.09.2016 02:32 17,2 C 89 % 1015,9 hPa 0,0 l/m 2,0 km/h (1 Bft) S 184 0 min 0,000 mm 0,0 UV-I 0 W/m 15,4 C 17,2 C 3,2 km/h (1 Bft) 95,74 %
04.09.2016 02:34 17,2 C 89 % 1015,9 hPa 0,0 l/m 3,2 km/h (1 Bft) S 184 0 min 0,000 mm 0,0 UV-I 0 W/m 15,4 C 17,2 C 4,8 km/h (1 Bft) 95,74 %
04.09.2016 02:36 17,2 C 89 % 1015,8 hPa 0,0 l/m 2,7 km/h (1 Bft) S 184 0 min 0,000 mm 0,0 UV-I 0 W/m 15,4 C 17,2 C 4,8 km/h (1 Bft) 95,74 %
04.09.2016 02:38 17,1 C 89 % 1015,9 hPa 0,0 l/m 3,3 km/h (1 Bft) S 184 0 min 0,000 mm 0,0 UV-I 0 W/m 15,3 C 17,1 C 4,8 km/h (1 Bft) 93,62 %
04.09.2016 02:40 17,1 C 89 % 1015,9 hPa 0,0 l/m 2,9 km/h (1 Bft) S 184 0 min 0,000 mm 0,0 UV-I 0 W/m 15,3 C 17,1 C 4,8 km/h (1 Bft) 97,87 %
04.09.2016 02:42 17,2 C 88 % 1015,9 hPa 0,0 l/m 2,0 km/h (1 Bft) S 184 0 min 0,000 mm 0,0 UV-I 0 W/m 15,2 C 17,2 C 3,2 km/h (1 Bft) 95,74 %
04.09.2016 02:44 17,1 C 88 % 1015,8 hPa 0,0 l/m 1,0 km/h (0 Bft) S 184 0 min 0,000 mm 0,0 UV-I 0 W/m 15,1 C 17,1 C 1,6 km/h (1 Bft) 95,74 %
04.09.2016 02:46 17,1 C 88 % 1015,8 hPa 0,0 l/m 1,7 km/h (1 Bft) S 184 0 min 0,000 mm 0,0 UV-I 0 W/m 15,1 C 17,1 C 3,2 km/h (1 Bft) 97,87 %
04.09.2016 02:48 17,1 C 88 % 1015,8 hPa 0,0 l/m 3,0 km/h (1 Bft) S 184 0 min 0,000 mm 0,0 UV-I 0 W/m 15,1 C 17,1 C 4,8 km/h (1 Bft) 97,87 %
04.09.2016 02:50 17,1 C 88 % 1015,8 hPa 0,0 l/m 1,8 km/h (1 Bft) S 184 0 min 0,000 mm 0,0 UV-I 0 W/m 15,1 C 17,1 C 4,8 km/h (1 Bft) 97,87 %
04.09.2016 02:52 17,1 C 88 % 1015,7 hPa 0,0 l/m 2,6 km/h (1 Bft) S 184 0 min 0,000 mm 0,0 UV-I 0 W/m 15,1 C 17,1 C 4,8 km/h (1 Bft) 97,87 %
04.09.2016 02:54 17,1 C 88 % 1015,7 hPa 0,0 l/m 2,7 km/h (1 Bft) S 184 0 min 0,000 mm 0,0 UV-I 0 W/m 15,1 C 17,1 C 4,8 km/h (1 Bft) 93,62 %
04.09.2016 02:56 17,1 C 88 % 1015,7 hPa 0,0 l/m 1,8 km/h (1 Bft) S 184 0 min 0,000 mm 0,0 UV-I 0 W/m 15,1 C 17,1 C 4,8 km/h (1 Bft) 97,87 %
04.09.2016 02:58 17,0 C 88 % 1015,7 hPa 0,0 l/m 1,4 km/h (1 Bft) S 184 0 min 0,000 mm 0,0 UV-I 0 W/m 15,0 C 17,0 C 3,2 km/h (1 Bft) 97,87 %
04.09.2016 03:00 16,9 C 88 % 1015,7 hPa 0,0 l/m 1,0 km/h (0 Bft) S 184 0 min 0,000 mm 0,0 UV-I 0 W/m 14,9 C 16,9 C 3,2 km/h (1 Bft) 100,00 %
04.09.2016 03:02 17,0 C 88 % 1015,7 hPa 0,0 l/m 1,3 km/h (1 Bft) S 184 0 min 0,000 mm 0,0 UV-I 0 W/m 15,0 C 17,0 C 3,2 km/h (1 Bft) 100,00 %
04.09.2016 03:04 17,0 C 88 % 1015,7 hPa 0,0 l/m 0,1 km/h (0 Bft) S 184 0 min 0,000 mm 0,0 UV-I 0 W/m 15,0 C 17,0 C 1,6 km/h (1 Bft) 100,00 %
04.09.2016 03:06 17,0 C 88 % 1015,7 hPa 0,0 l/m 0,0 km/h (0 Bft) S 184 0 min 0,000 mm 0,0 UV-I 0 W/m 15,0 C 17,0 C 1,6 km/h (1 Bft) 100,00 %
04.09.2016 03:08 17,1 C 88 % 1015,8 hPa 0,0 l/m 0,0 km/h (0 Bft) S 184 0 min 0,000 mm 0,0 UV-I 0 W/m 15,1 C 17,1 C 0,0 km/h (0 Bft) 100,00 %
04.09.2016 03:10 17,0 C 88 % 1015,8 hPa 0,0 l/m 0,4 km/h (0 Bft) S 184 0 min 0,000 mm 0,0 UV-I 0 W/m 15,0 C 17,0 C 1,6 km/h (1 Bft) 97,87 %
04.09.2016 03:12 16,9 C 89 % 1015,8 hPa 0,0 l/m 2,3 km/h (1 Bft) S 184 0 min 0,000 mm 0,0 UV-I 0 W/m 15,1 C 16,9 C 3,2 km/h (1 Bft) 100,00 %
04.09.2016 03:14 17,0 C 89 % 1015,8 hPa 0,0 l/m 1,1 km/h (1 Bft) S 184 0 min 0,000 mm 0,0 UV-I 0 W/m 15,2 C 17,0 C 1,6 km/h (1 Bft) 100,00 %
04.09.2016 03:16 16,9 C 88 % 1015,8 hPa 0,0 l/m 0,5 km/h (0 Bft) S 184 0 min 0,000 mm 0,0 UV-I 0 W/m 14,9 C 16,9 C 1,6 km/h (1 Bft) 100,00 %
04.09.2016 03:18 16,8 C 89 % 1015,7 hPa 0,0 l/m 0,0 km/h (0 Bft) S 184 0 min 0,000 mm 0,0 UV-I 0 W/m 15,0 C 16,8 C 0,0 km/h (0 Bft) 100,00 %
04.09.2016 03:20 16,7 C 89 % 1015,7 hPa 0,0 l/m 0,1 km/h (0 Bft) S 184 0 min 0,000 mm 0,0 UV-I 0 W/m 14,9 C 16,7 C 1,6 km/h (1 Bft) 100,00 %
04.09.2016 03:22 16,7 C 90 % 1015,8 hPa 0,0 l/m 0,4 km/h (0 Bft) S 184 0 min 0,000 mm 0,0 UV-I 0 W/m 15,0 C 16,7 C 1,6 km/h (1 Bft) 100,00 %
04.09.2016 03:24 16,7 C 90 % 1015,7 hPa 0,0 l/m 0,0 km/h (0 Bft) S 184 0 min 0,000 mm 0,0 UV-I 0 W/m 15,0 C 16,7 C 0,0 km/h (0 Bft) 97,87 %
04.09.2016 03:26 16,7 C 90 % 1015,7 hPa 0,0 l/m 0,0 km/h (0 Bft) S 184 0 min 0,000 mm 0,0 UV-I 0 W/m 15,0 C 16,7 C 0,0 km/h (0 Bft) 100,00 %
04.09.2016 03:28 16,7 C 89 % 1015,7 hPa 0,0 l/m 0,0 km/h (0 Bft) S 184 0 min 0,000 mm 0,0 UV-I 0 W/m 14,9 C 16,7 C 0,0 km/h (0 Bft) 100,00 %
04.09.2016 03:30 16,6 C 89 % 1015,7 hPa 0,0 l/m 0,0 km/h (0 Bft) S 184 0 min 0,000 mm 0,0 UV-I 0 W/m 14,8 C 16,6 C 0,0 km/h (0 Bft) 100,00 %
04.09.2016 03:32 16,6 C 90 % 1015,7 hPa 0,0 l/m 0,0 km/h (0 Bft) S 184 0 min 0,000 mm 0,0 UV-I 0 W/m 15,0 C 16,6 C 0,0 km/h (0 Bft) 97,87 %
04.09.2016 03:34 16,5 C 90 % 1015,8 hPa 0,0 l/m 0,0 km/h (0 Bft) S 184 0 min 0,000 mm 0,0 UV-I 0 W/m 14,9 C 16,5 C 0,0 km/h (0 Bft) 100,00 %
04.09.2016 03:36 16,5 C 90 % 1015,7 hPa 0,0 l/m 0,0 km/h (0 Bft) S 184 0 min 0,000 mm 0,0 UV-I 0 W/m 14,9 C 16,5 C 0,0 km/h (0 Bft) 95,74 %
04.09.2016 03:38 16,5 C 90 % 1015,7 hPa 0,0 l/m 0,0 km/h (0 Bft) S 184 0 min 0,000 mm 0,0 UV-I 0 W/m 14,9 C 16,5 C 0,0 km/h (0 Bft) 98,00 %
04.09.2016 03:40 16,5 C 89 % 1015,7 hPa 0,0 l/m 0,0 km/h (0 Bft) S 184 0 min 0,000 mm 0,0 UV-I 0 W/m 14,7 C 16,5 C 0,0 km/h (0 Bft) 100,00 %
04.09.2016 03:42 16,5 C 90 % 1015,6 hPa 0,0 l/m 0,0 km/h (0 Bft) S 184 0 min 0,000 mm 0,0 UV-I 0 W/m 14,9 C 16,5 C 0,0 km/h (0 Bft) 100,00 %
04.09.2016 03:44 16,6 C 90 % 1015,6 hPa 0,0 l/m 0,0 km/h (0 Bft) S 184 0 min 0,000 mm 0,0 UV-I 0 W/m 15,0 C 16,6 C 0,0 km/h (0 Bft) 100,00 %
04.09.2016 03:46 16,6 C 90 % 1015,6 hPa 0,0 l/m 0,0 km/h (0 Bft) S 184 0 min 0,000 mm 0,0 UV-I 0 W/m 15,0 C 16,6 C 0,0 km/h (0 Bft) 100,00 %
04.09.2016 03:48 16,6 C 90 % 1015,6 hPa 0,0 l/m 0,0 km/h (0 Bft) S 184 0 min 0,000 mm 0,0 UV-I 0 W/m 15,0 C 16,6 C 0,0 km/h (0 Bft) 100,00 %
04.09.2016 03:50 16,6 C 90 % 1015,5 hPa 0,0 l/m 0,0 km/h (0 Bft) S 184 0 min 0,000 mm 0,0 UV-I 0 W/m 15,0 C 16,6 C 0,0 km/h (0 Bft) 100,00 %
04.09.2016 03:52 16,6 C 90 % 1015,6 hPa 0,0 l/m 0,0 km/h (0 Bft) S 184 0 min 0,000 mm 0,0 UV-I 0 W/m 15,0 C 16,6 C 0,0 km/h (0 Bft) 100,00 %
04.09.2016 03:54 16,5 C 90 % 1015,5 hPa 0,0 l/m 0,0 km/h (0 Bft) S 184 0 min 0,000 mm 0,0 UV-I 0 W/m 14,9 C 16,5 C 0,0 km/h (0 Bft) 97,87 %
04.09.2016 03:56 16,4 C 90 % 1015,5 hPa 0,0 l/m 0,0 km/h (0 Bft) S 184 0 min 0,000 mm 0,0 UV-I 0 W/m 14,8 C 16,4 C 0,0 km/h (0 Bft) 100,00 %
04.09.2016 03:58 16,3 C 90 % 1015,5 hPa 0,0 l/m 0,0 km/h (0 Bft) S 184 0 min 0,000 mm 0,0 UV-I 0 W/m 14,7 C 16,3 C 0,0 km/h (0 Bft) 100,00 %
04.09.2016 04:00 16,2 C 90 % 1015,4 hPa 0,0 l/m 0,0 km/h (0 Bft) S 184 0 min 0,000 mm 0,0 UV-I 0 W/m 14,6 C 16,2 C 0,0 km/h (0 Bft) 100,00 %
04.09.2016 04:02 16,2 C 90 % 1015,4 hPa 0,0 l/m 0,0 km/h (0 Bft) S 184 0 min 0,000 mm 0,0 UV-I 0 W/m 14,6 C 16,2 C 0,0 km/h (0 Bft) 100,00 %
04.09.2016 04:04 16,1 C 91 % 1015,4 hPa 0,0 l/m 0,0 km/h (0 Bft) S 184 0 min 0,000 mm 0,0 UV-I 0 W/m 14,6 C 16,1 C 0,0 km/h (0 Bft) 100,00 %
04.09.2016 04:06 16,2 C 91 % 1015,4 hPa 0,0 l/m 0,0 km/h (0 Bft) S 184 0 min 0,000 mm 0,0 UV-I 0 W/m 14,7 C 16,2 C 0,0 km/h (0 Bft) 100,00 %
04.09.2016 04:08 16,2 C 91 % 1015,4 hPa 0,0 l/m 0,0 km/h (0 Bft) S 184 0 min 0,000 mm 0,0 UV-I 0 W/m 14,7 C 16,2 C 0,0 km/h (0 Bft) 100,00 %
04.09.2016 04:10 16,2 C 90 % 1015,4 hPa 0,0 l/m 0,0 km/h (0 Bft) S 184 0 min 0,000 mm 0,0 UV-I 0 W/m 14,6 C 16,2 C 0,0 km/h (0 Bft) 97,87 %
04.09.2016 04:12 16,2 C 91 % 1015,5 hPa 0,0 l/m 0,0 km/h (0 Bft) S 184 0 min 0,000 mm 0,0 UV-I 0 W/m 14,7 C 16,2 C 0,0 km/h (0 Bft) 100,00 %
04.09.2016 04:14 16,1 C 91 % 1015,5 hPa 0,0 l/m 0,0 km/h (0 Bft) S 184 0 min 0,000 mm 0,0 UV-I 0 W/m 14,6 C 16,1 C 0,0 km/h (0 Bft) 100,00 %
04.09.2016 04:16 15,8 C 91 % 1015,5 hPa 0,0 l/m 0,0 km/h (0 Bft) S 184 0 min 0,000 mm 0,0 UV-I 0 W/m 14,3 C 15,8 C 0,0 km/h (0 Bft) 100,00 %
04.09.2016 04:18 15,7 C 91 % 1015,4 hPa 0,0 l/m 0,0 km/h (0 Bft) S 184 0 min 0,000 mm 0,0 UV-I 0 W/m 14,2 C 15,7 C 0,0 km/h (0 Bft) 100,00 %
04.09.2016 04:20 15,6 C 92 % 1015,4 hPa 0,0 l/m 0,0 km/h (0 Bft) S 184 0 min 0,000 mm 0,0 UV-I 0 W/m 14,3 C 15,6 C 0,0 km/h (0 Bft) 97,87 %
04.09.2016 04:22 15,6 C 92 % 1015,4 hPa 0,0 l/m 0,0 km/h (0 Bft) S 184 0 min 0,000 mm 0,0 UV-I 0 W/m 14,3 C 15,6 C 0,0 km/h (0 Bft) 100,00 %
04.09.2016 04:24 15,6 C 93 % 1015,4 hPa 0,0 l/m 0,0 km/h (0 Bft) S 184 0 min 0,000 mm 0,0 UV-I 0 W/m 14,5 C 15,6 C 0,0 km/h (0 Bft) 97,96 %
04.09.2016 04:26 15,6 C 93 % 1015,5 hPa 0,0 l/m 0,0 km/h (0 Bft) S 184 0 min 0,000 mm 0,0 UV-I 0 W/m 14,5 C 15,6 C 0,0 km/h (0 Bft) 97,87 %
04.09.2016 04:28 15,7 C 93 % 1015,5 hPa 0,0 l/m 0,0 km/h (0 Bft) S 184 0 min 0,000 mm 0,0 UV-I 0 W/m 14,6 C 15,7 C 0,0 km/h (0 Bft) 97,87 %
04.09.2016 04:30 15,7 C 93 % 1015,4 hPa 0,0 l/m 0,0 km/h (0 Bft) S 184 0 min 0,000 mm 0,0 UV-I 0 W/m 14,6 C 15,7 C 0,0 km/h (0 Bft) 95,74 %
04.09.2016 04:32 15,7 C 93 % 1015,5 hPa 0,0 l/m 0,0 km/h (0 Bft) S 184 0 min 0,000 mm 0,0 UV-I 0 W/m 14,6 C 15,7 C 0,0 km/h (0 Bft) 95,83 %
04.09.2016 04:34 15,7 C 93 % 1015,5 hPa 0,0 l/m 0,0 km/h (0 Bft) S 184 0 min 0,000 mm 0,0 UV-I 0 W/m 14,6 C 15,7 C 0,0 km/h (0 Bft) 95,74 %
04.09.2016 04:36 15,7 C 93 % 1015,5 hPa 0,0 l/m 0,0 km/h (0 Bft) S 184 0 min 0,000 mm 0,0 UV-I 0 W/m 14,6 C 15,7 C 0,0 km/h (0 Bft) 95,74 %
04.09.2016 04:38 15,6 C 92 % 1015,4 hPa 0,0 l/m 0,2 km/h (0 Bft) S 184 0 min 0,000 mm 0,0 UV-I 0 W/m 14,3 C 15,6 C 1,6 km/h (1 Bft) 95,74 %
04.09.2016 04:40 15,4 C 92 % 1015,5 hPa 0,0 l/m 0,7 km/h (0 Bft) S 184 0 min 0,000 mm 0,0 UV-I 0 W/m 14,1 C 15,4 C 1,6 km/h (1 Bft) 95,74 %
04.09.2016 04:42 15,4 C 93 % 1015,5 hPa 0,0 l/m 0,1 km/h (0 Bft) S 184 0 min 0,000 mm 0,0 UV-I 0 W/m 14,3 C 15,4 C 1,6 km/h (1 Bft) 95,74 %
04.09.2016 04:44 15,4 C 93 % 1015,5 hPa 0,0 l/m 0,0 km/h (0 Bft) S 184 0 min 0,000 mm 0,0 UV-I 0 W/m 14,3 C 15,4 C 0,0 km/h (0 Bft) 94,74 %
04.09.2016 04:46 15,4 C 93 % 1015,4 hPa 0,0 l/m 0,0 km/h (0 Bft) S 184 0 min 0,000 mm 0,0 UV-I 0 W/m 14,3 C 15,4 C 0,0 km/h (0 Bft) 97,87 %
04.09.2016 04:48 15,5 C 93 % 1015,4 hPa 0,0 l/m 0,0 km/h (0 Bft) S 184 0 min 0,000 mm 0,0 UV-I 0 W/m 14,4 C 15,5 C 0,0 km/h (0 Bft) 97,87 %
04.09.2016 04:50 15,5 C 93 % 1015,4 hPa 0,0 l/m 0,0 km/h (0 Bft) S 184 0 min 0,000 mm 0,0 UV-I 0 W/m 14,4 C 15,5 C 0,0 km/h (0 Bft) 97,87 %
04.09.2016 04:52 15,5 C 93 % 1015,4 hPa 0,0 l/m 0,0 km/h (0 Bft) S 184 0 min 0,000 mm 0,0 UV-I 0 W/m 14,4 C 15,5 C 1,6 km/h (1 Bft) 98,00 %
04.09.2016 04:54 15,4 C 93 % 1015,3 hPa 0,0 l/m 0,0 km/h (0 Bft) S 184 0 min 0,000 mm 0,0 UV-I 0 W/m 14,3 C 15,4 C 0,0 km/h (0 Bft) 93,62 %
04.09.2016 04:56 15,3 C 92 % 1015,4 hPa 0,0 l/m 0,0 km/h (0 Bft) S 184 0 min 0,000 mm 0,0 UV-I 0 W/m 14,0 C 15,3 C 0,0 km/h (0 Bft) 97,87 %
04.09.2016 04:58 15,2 C 93 % 1015,3 hPa 0,0 l/m 0,0 km/h (0 Bft) S 184 0 min 0,000 mm 0,0 UV-I 0 W/m 14,1 C 15,2 C 0,0 km/h (0 Bft) 100,00 %
04.09.2016 05:00 15,2 C 93 % 1015,3 hPa 0,0 l/m 0,0 km/h (0 Bft) S 184 0 min 0,000 mm 0,0 UV-I 0 W/m 14,1 C 15,2 C 0,0 km/h (0 Bft) 100,00 %
04.09.2016 05:02 15,2 C 93 % 1015,3 hPa 0,0 l/m 0,0 km/h (0 Bft) S 184 0 min 0,000 mm 0,0 UV-I 0 W/m 14,1 C 15,2 C 0,0 km/h (0 Bft) 100,00 %
04.09.2016 05:04 15,2 C 93 % 1015,3 hPa 0,0 l/m 0,0 km/h (0 Bft) S 184 0 min 0,000 mm 0,0 UV-I 0 W/m 14,1 C 15,2 C 0,0 km/h (0 Bft) 100,00 %
04.09.2016 05:06 15,2 C 93 % 1015,3 hPa 0,0 l/m 0,0 km/h (0 Bft) S 184 0 min 0,000 mm 0,0 UV-I 0 W/m 14,1 C 15,2 C 0,0 km/h (0 Bft) 97,87 %
04.09.2016 05:08 15,2 C 94 % 1015,3 hPa 0,0 l/m 0,0 km/h (0 Bft) S 184 0 min 0,000 mm 0,0 UV-I 0 W/m 14,2 C 15,2 C 0,0 km/h (0 Bft) 100,00 %
04.09.2016 05:10 15,2 C 94 % 1015,3 hPa 0,0 l/m 0,0 km/h (0 Bft) S 184 0 min 0,000 mm 0,0 UV-I 0 W/m 14,2 C 15,2 C 0,0 km/h (0 Bft) 100,00 %
04.09.2016 05:12 15,2 C 94 % 1015,3 hPa 0,0 l/m 0,0 km/h (0 Bft) S 184 0 min 0,000 mm 0,0 UV-I 0 W/m 14,2 C 15,2 C 0,0 km/h (0 Bft) 100,00 %
04.09.2016 05:14 15,2 C 93 % 1015,3 hPa 0,0 l/m 0,0 km/h (0 Bft) S 184 0 min 0,000 mm 0,0 UV-I 0 W/m 14,1 C 15,2 C 0,0 km/h (0 Bft) 91,49 %
04.09.2016 05:16 15,2 C 93 % 1015,3 hPa 0,0 l/m 0,0 km/h (0 Bft) S 184 0 min 0,000 mm 0,0 UV-I 0 W/m 14,1 C 15,2 C 0,0 km/h (0 Bft) 100,00 %
04.09.2016 05:18 15,2 C 93 % 1015,3 hPa 0,0 l/m 0,0 km/h (0 Bft) S 184 0 min 0,000 mm 0,0 UV-I 0 W/m 14,1 C 15,2 C 0,0 km/h (0 Bft) 100,00 %
04.09.2016 05:20 15,1 C 93 % 1015,4 hPa 0,0 l/m 0,0 km/h (0 Bft) S 184 0 min 0,000 mm 0,0 UV-I 0 W/m 14,0 C 15,1 C 0,0 km/h (0 Bft) 97,87 %
04.09.2016 05:22 15,1 C 93 % 1015,3 hPa 0,0 l/m 0,0 km/h (0 Bft) S 184 0 min 0,000 mm 0,0 UV-I 0 W/m 14,0 C 15,1 C 0,0 km/h (0 Bft) 100,00 %
04.09.2016 05:24 15,1 C 93 % 1015,4 hPa 0,0 l/m 0,0 km/h (0 Bft) S 184 0 min 0,000 mm 0,0 UV-I 0 W/m 14,0 C 15,1 C 0,0 km/h (0 Bft) 100,00 %
04.09.2016 05:26 15,1 C 93 % 1015,5 hPa 0,0 l/m 0,0 km/h (0 Bft) S 184 0 min 0,000 mm 0,0 UV-I 0 W/m 14,0 C 15,1 C 0,0 km/h (0 Bft) 100,00 %
04.09.2016 05:28 15,0 C 93 % 1015,4 hPa 0,0 l/m 0,0 km/h (0 Bft) S 184 0 min 0,000 mm 0,0 UV-I 0 W/m 13,9 C 15,0 C 0,0 km/h (0 Bft) 100,00 %
04.09.2016 05:30 15,1 C 93 % 1015,4 hPa 0,0 l/m 0,0 km/h (0 Bft) S 184 0 min 0,000 mm 0,0 UV-I 0 W/m 14,0 C 15,1 C 0,0 km/h (0 Bft) 100,00 %
04.09.2016 05:32 15,0 C 93 % 1015,4 hPa 0,0 l/m 0,0 km/h (0 Bft) S 184 0 min 0,000 mm 0,0 UV-I 0 W/m 13,9 C 15,0 C 0,0 km/h (0 Bft) 100,00 %
04.09.2016 05:34 15,0 C 93 % 1015,4 hPa 0,0 l/m 0,0 km/h (0 Bft) S 184 0 min 0,000 mm 0,0 UV-I 0 W/m 13,9 C 15,0 C 0,0 km/h (0 Bft) 100,00 %
04.09.2016 05:36 14,9 C 93 % 1015,4 hPa 0,0 l/m 0,0 km/h (0 Bft) S 184 0 min 0,000 mm 0,0 UV-I 0 W/m 13,8 C 14,9 C 0,0 km/h (0 Bft) 100,00 %
04.09.2016 05:38 14,9 C 93 % 1015,4 hPa 0,0 l/m 0,0 km/h (0 Bft) S 184 0 min 0,000 mm 0,0 UV-I 0 W/m 13,8 C 14,9 C 0,0 km/h (0 Bft) 100,00 %
04.09.2016 05:40 14,9 C 93 % 1015,4 hPa 0,0 l/m 0,0 km/h (0 Bft) S 184 0 min 0,000 mm 0,0 UV-I 0 W/m 13,8 C 14,9 C 0,0 km/h (0 Bft) 100,00 %
04.09.2016 05:42 14,8 C 93 % 1015,4 hPa 0,0 l/m 0,0 km/h (0 Bft) S 184 0 min 0,000 mm 0,0 UV-I 0 W/m 13,7 C 14,8 C 0,0 km/h (0 Bft) 100,00 %
04.09.2016 05:44 14,9 C 93 % 1015,4 hPa 0,0 l/m 0,0 km/h (0 Bft) S 184 0 min 0,000 mm 0,0 UV-I 0 W/m 13,8 C 14,9 C 0,0 km/h (0 Bft) 100,00 %
04.09.2016 05:46 14,9 C 93 % 1015,4 hPa 0,0 l/m 0,0 km/h (0 Bft) S 184 0 min 0,000 mm 0,0 UV-I 0 W/m 13,8 C 14,9 C 0,0 km/h (0 Bft) 100,00 %
04.09.2016 05:48 14,9 C 93 % 1015,4 hPa 0,0 l/m 0,0 km/h (0 Bft) S 184 0 min 0,000 mm 0,0 UV-I 0 W/m 13,8 C 14,9 C 0,0 km/h (0 Bft) 100,00 %
04.09.2016 05:50 14,8 C 93 % 1015,4 hPa 0,0 l/m 0,0 km/h (0 Bft) S 184 0 min 0,000 mm 0,0 UV-I 0 W/m 13,7 C 14,8 C 0,0 km/h (0 Bft) 100,00 %
04.09.2016 05:52 14,8 C 94 % 1015,4 hPa 0,0 l/m 0,0 km/h (0 Bft) S 184 0 min 0,000 mm 0,0 UV-I 0 W/m 13,8 C 14,8 C 0,0 km/h (0 Bft) 95,74 %
04.09.2016 05:54 14,8 C 94 % 1015,4 hPa 0,0 l/m 0,0 km/h (0 Bft) S 184 0 min 0,000 mm 0,0 UV-I 0 W/m 13,8 C 14,8 C 0,0 km/h (0 Bft) 97,87 %
04.09.2016 05:56 14,8 C 94 % 1015,4 hPa 0,0 l/m 0,0 km/h (0 Bft) S 184 0 min 0,000 mm 0,0 UV-I 0 W/m 13,8 C 14,8 C 0,0 km/h (0 Bft) 100,00 %
04.09.2016 05:58 14,8 C 94 % 1015,4 hPa 0,0 l/m 0,0 km/h (0 Bft) S 184 0 min 0,000 mm 0,0 UV-I 0 W/m 13,8 C 14,8 C 0,0 km/h (0 Bft) 97,87 %
04.09.2016 06:00 14,8 C 94 % 1015,4 hPa 0,0 l/m 0,0 km/h (0 Bft) S 184 0 min 0,000 mm 0,0 UV-I 0 W/m 13,8 C 14,8 C 0,0 km/h (0 Bft) 100,00 %
04.09.2016 06:02 14,8 C 94 % 1015,4 hPa 0,0 l/m 0,0 km/h (0 Bft) S 184 0 min 0,000 mm 0,0 UV-I 0 W/m 13,8 C 14,8 C 0,0 km/h (0 Bft) 97,87 %
04.09.2016 06:04 14,8 C 94 % 1015,4 hPa 0,0 l/m 0,0 km/h (0 Bft) S 184 0 min 0,000 mm 0,0 UV-I 0 W/m 13,8 C 14,8 C 0,0 km/h (0 Bft) 100,00 %
04.09.2016 06:06 14,8 C 94 % 1015,4 hPa 0,0 l/m 0,0 km/h (0 Bft) S 184 0 min 0,000 mm 0,0 UV-I 0 W/m 13,8 C 14,8 C 0,0 km/h (0 Bft) 97,87 %
04.09.2016 06:08 14,8 C 94 % 1015,4 hPa 0,0 l/m 0,0 km/h (0 Bft) S 184 0 min 0,000 mm 0,0 UV-I 0 W/m 13,8 C 14,8 C 0,0 km/h (0 Bft) 100,00 %
04.09.2016 06:10 14,7 C 94 % 1015,4 hPa 0,0 l/m 0,0 km/h (0 Bft) S 184 0 min 0,000 mm 0,0 UV-I 0 W/m 13,7 C 14,7 C 0,0 km/h (0 Bft) 97,87 %
04.09.2016 06:12 14,7 C 94 % 1015,4 hPa 0,0 l/m 0,0 km/h (0 Bft) S 184 0 min 0,000 mm 0,0 UV-I 0 W/m 13,7 C 14,7 C 0,0 km/h (0 Bft) 95,74 %
04.09.2016 06:14 14,7 C 94 % 1015,4 hPa 0,0 l/m 0,0 km/h (0 Bft) S 184 0 min 0,000 mm 0,0 UV-I 0 W/m 13,7 C 14,7 C 0,0 km/h (0 Bft) 97,87 %
04.09.2016 06:16 14,7 C 94 % 1015,4 hPa 0,0 l/m 0,0 km/h (0 Bft) S 184 0 min 0,000 mm 0,0 UV-I 0 W/m 13,7 C 14,7 C 0,0 km/h (0 Bft) 100,00 %
04.09.2016 06:18 14,7 C 94 % 1015,3 hPa 0,0 l/m 0,0 km/h (0 Bft) S 184 0 min 0,000 mm 0,0 UV-I 0 W/m 13,7 C 14,7 C 0,0 km/h (0 Bft) 97,87 %
04.09.2016 06:20 14,7 C 94 % 1015,3 hPa 0,0 l/m 0,0 km/h (0 Bft) S 184 0 min 0,000 mm 0,0 UV-I 0 W/m 13,7 C 14,7 C 0,0 km/h (0 Bft) 100,00 %
04.09.2016 06:22 14,6 C 94 % 1015,3 hPa 0,0 l/m 0,0 km/h (0 Bft) S 184 0 min 0,000 mm 0,0 UV-I 0 W/m 13,6 C 14,6 C 0,0 km/h (0 Bft) 95,74 %
04.09.2016 06:24 14,5 C 93 % 1015,3 hPa 0,0 l/m 0,0 km/h (0 Bft) S 184 0 min 0,000 mm 0,0 UV-I 0 W/m 13,4 C 14,5 C 0,0 km/h (0 Bft) 95,74 %
04.09.2016 06:26 14,5 C 94 % 1015,3 hPa 0,0 l/m 0,0 km/h (0 Bft) S 184 0 min 0,000 mm 0,0 UV-I 0 W/m 13,5 C 14,5 C 0,0 km/h (0 Bft) 95,74 %
04.09.2016 06:28 14,4 C 94 % 1015,3 hPa 0,0 l/m 0,0 km/h (0 Bft) S 184 0 min 0,000 mm 0,0 UV-I 3 W/m 13,4 C 14,4 C 0,0 km/h (0 Bft) 97,92 %
04.09.2016 06:30 14,4 C 94 % 1015,4 hPa 0,0 l/m 0,0 km/h (0 Bft) S 184 0 min 0,000 mm 0,0 UV-I 5 W/m 13,4 C 14,4 C 0,0 km/h (0 Bft) 97,87 %
04.09.2016 06:32 14,5 C 94 % 1015,3 hPa 0,0 l/m 0,0 km/h (0 Bft) S 184 0 min 0,000 mm 0,0 UV-I 6 W/m 13,5 C 14,5 C 0,0 km/h (0 Bft) 97,37 %
04.09.2016 06:34 14,6 C 95 % 1015,4 hPa 0,0 l/m 0,0 km/h (0 Bft) S 184 0 min 0,000 mm 0,0 UV-I 7 W/m 13,8 C 14,6 C 0,0 km/h (0 Bft) 97,87 %
04.09.2016 06:36 14,5 C 94 % 1015,4 hPa 0,0 l/m 0,0 km/h (0 Bft) S 184 0 min 0,000 mm 0,0 UV-I 9 W/m 13,5 C 14,5 C 0,0 km/h (0 Bft) 97,87 %
04.09.2016 06:38 14,4 C 94 % 1015,4 hPa 0,0 l/m 0,0 km/h (0 Bft) S 184 0 min 0,000 mm 0,0 UV-I 10 W/m 13,4 C 14,4 C 0,0 km/h (0 Bft) 98,00 %
04.09.2016 06:40 14,4 C 95 % 1015,5 hPa 0,0 l/m 0,0 km/h (0 Bft) S 184 0 min 0,000 mm 0,0 UV-I 12 W/m 13,6 C 14,4 C 0,0 km/h (0 Bft) 95,74 %
04.09.2016 06:42 14,4 C 95 % 1015,4 hPa 0,0 l/m 0,0 km/h (0 Bft) S 184 0 min 0,000 mm 0,0 UV-I 13 W/m 13,6 C 14,4 C 0,0 km/h (0 Bft) 97,87 %
04.09.2016 06:44 14,5 C 95 % 1015,5 hPa 0,0 l/m 0,0 km/h (0 Bft) S 184 0 min 0,000 mm 0,0 UV-I 16 W/m 13,7 C 14,5 C 0,0 km/h (0 Bft) 97,87 %
04.09.2016 06:46 14,5 C 95 % 1015,5 hPa 0,0 l/m 0,0 km/h (0 Bft) S 184 0 min 0,000 mm 0,0 UV-I 18 W/m 13,7 C 14,5 C 0,0 km/h (0 Bft) 97,87 %
04.09.2016 06:48 14,5 C 95 % 1015,5 hPa 0,0 l/m 0,0 km/h (0 Bft) S 184 0 min 0,000 mm 0,0 UV-I 19 W/m 13,7 C 14,5 C 0,0 km/h (0 Bft) 97,87 %
04.09.2016 06:50 14,4 C 94 % 1015,4 hPa 0,0 l/m 0,0 km/h (0 Bft) S 184 0 min 0,000 mm 0,0 UV-I 20 W/m 13,4 C 14,4 C 0,0 km/h (0 Bft) 97,87 %
04.09.2016 06:52 14,5 C 95 % 1015,5 hPa 0,0 l/m 0,9 km/h (0 Bft) S 184 0 min 0,000 mm 0,0 UV-I 23 W/m 13,7 C 14,5 C 3,2 km/h (1 Bft) 97,87 %
04.09.2016 06:54 14,6 C 95 % 1015,4 hPa 0,0 l/m 1,5 km/h (1 Bft) S 184 0 min 0,000 mm 0,0 UV-I 25 W/m 13,8 C 14,6 C 3,2 km/h (1 Bft) 95,74 %
04.09.2016 06:56 14,6 C 95 % 1015,5 hPa 0,0 l/m 2,0 km/h (1 Bft) S 184 0 min 0,000 mm 0,0 UV-I 26 W/m 13,8 C 14,6 C 3,2 km/h (1 Bft) 95,74 %
04.09.2016 06:58 14,6 C 95 % 1015,5 hPa 0,0 l/m 1,1 km/h (1 Bft) S 184 0 min 0,000 mm 0,0 UV-I 26 W/m 13,8 C 14,6 C 3,2 km/h (1 Bft) 95,74 %
04.09.2016 07:00 14,6 C 95 % 1015,5 hPa 0,0 l/m 0,2 km/h (0 Bft) S 184 0 min 0,000 mm 0,0 UV-I 26 W/m 13,8 C 14,6 C 1,6 km/h (1 Bft) 100,00 %
04.09.2016 07:02 14,6 C 95 % 1015,6 hPa 0,0 l/m 0,0 km/h (0 Bft) S 184 0 min 0,000 mm 0,0 UV-I 26 W/m 13,8 C 14,6 C 0,0 km/h (0 Bft) 100,00 %
04.09.2016 07:04 14,7 C 95 % 1015,7 hPa 0,0 l/m 0,0 km/h (0 Bft) S 184 0 min 0,000 mm 0,0 UV-I 26 W/m 13,9 C 14,7 C 0,0 km/h (0 Bft) 95,74 %
04.09.2016 07:06 14,6 C 95 % 1015,7 hPa 0,0 l/m 0,0 km/h (0 Bft) S 184 0 min 0,000 mm 0,0 UV-I 26 W/m 13,8 C 14,6 C 0,0 km/h (0 Bft) 97,92 %
04.09.2016 07:08 14,4 C 94 % 1015,7 hPa 0,0 l/m 0,4 km/h (0 Bft) S 184 0 min 0,000 mm 0,0 UV-I 25 W/m 13,4 C 14,4 C 1,6 km/h (1 Bft) 97,87 %
04.09.2016 07:10 14,3 C 94 % 1015,7 hPa 0,0 l/m 0,0 km/h (0 Bft) S 184 0 min 0,000 mm 0,0 UV-I 25 W/m 13,3 C 14,3 C 0,0 km/h (0 Bft) 100,00 %
04.09.2016 07:12 14,2 C 94 % 1015,7 hPa 0,0 l/m 0,0 km/h (0 Bft) S 184 0 min 0,000 mm 0,0 UV-I 25 W/m 13,2 C 14,2 C 0,0 km/h (0 Bft) 100,00 %
04.09.2016 07:14 14,3 C 95 % 1015,7 hPa 0,0 l/m 0,0 km/h (0 Bft) S 184 0 min 0,000 mm 0,0 UV-I 26 W/m 13,5 C 14,3 C 0,0 km/h (0 Bft) 97,87 %
04.09.2016 07:16 14,3 C 95 % 1015,7 hPa 0,0 l/m 0,0 km/h (0 Bft) S 184 0 min 0,000 mm 0,0 UV-I 27 W/m 13,5 C 14,3 C 0,0 km/h (0 Bft) 100,00 %
04.09.2016 07:18 14,3 C 95 % 1015,7 hPa 0,0 l/m 0,0 km/h (0 Bft) S 184 0 min 0,000 mm 0,0 UV-I 29 W/m 13,5 C 14,3 C 0,0 km/h (0 Bft) 100,00 %
04.09.2016 07:20 14,4 C 95 % 1015,7 hPa 0,0 l/m 0,0 km/h (0 Bft) S 184 0 min 0,000 mm 0,0 UV-I 31 W/m 13,6 C 14,4 C 0,0 km/h (0 Bft) 100,00 %
04.09.2016 07:22 14,4 C 95 % 1015,7 hPa 0,0 l/m 0,0 km/h (0 Bft) S 184 0 min 0,000 mm 0,0 UV-I 33 W/m 13,6 C 14,4 C 0,0 km/h (0 Bft) 97,87 %
04.09.2016 07:24 14,5 C 95 % 1015,8 hPa 0,0 l/m 0,0 km/h (0 Bft) S 184 0 min 0,000 mm 0,0 UV-I 35 W/m 13,7 C 14,5 C 0,0 km/h (0 Bft) 100,00 %
04.09.2016 07:26 14,6 C 95 % 1015,8 hPa 0,0 l/m 0,0 km/h (0 Bft) S 184 0 min 0,000 mm 0,0 UV-I 51 W/m 13,8 C 14,6 C 0,0 km/h (0 Bft) 100,00 %
04.09.2016 07:28 14,7 C 95 % 1015,8 hPa 0,0 l/m 0,0 km/h (0 Bft) S 184 0 min 0,000 mm 0,0 UV-I 62 W/m 13,9 C 14,7 C 0,0 km/h (0 Bft) 100,00 %
04.09.2016 07:30 14,7 C 95 % 1015,8 hPa 0,0 l/m 0,0 km/h (0 Bft) S 184 0 min 0,000 mm 0,0 UV-I 65 W/m 13,9 C 14,7 C 0,0 km/h (0 Bft) 100,00 %
04.09.2016 07:32 14,8 C 95 % 1015,8 hPa 0,0 l/m 0,5 km/h (0 Bft) S 184 0 min 0,000 mm 0,0 UV-I 62 W/m 14,0 C 14,8 C 1,6 km/h (1 Bft) 100,00 %
04.09.2016 07:34 14,8 C 95 % 1015,8 hPa 0,0 l/m 1,6 km/h (1 Bft) S 184 0 min 0,000 mm 0,0 UV-I 64 W/m 14,0 C 14,8 C 3,2 km/h (1 Bft) 100,00 %
04.09.2016 07:36 14,9 C 95 % 1015,8 hPa 0,0 l/m 1,8 km/h (1 Bft) S 184 0 min 0,000 mm 0,0 UV-I 74 W/m 14,1 C 14,9 C 3,2 km/h (1 Bft) 100,00 %
04.09.2016 07:38 14,9 C 95 % 1015,7 hPa 0,0 l/m 1,6 km/h (1 Bft) S 184 0 min 0,000 mm 0,0 UV-I 89 W/m 14,1 C 14,9 C 3,2 km/h (1 Bft) 100,00 %
04.09.2016 07:40 15,1 C 95 % 1015,7 hPa 0,0 l/m 0,9 km/h (0 Bft) S 184 0 min 0,000 mm 0,0 UV-I 96 W/m 14,3 C 15,1 C 1,6 km/h (1 Bft) 100,00 %
04.09.2016 07:42 15,3 C 95 % 1015,8 hPa 0,0 l/m 0,8 km/h (0 Bft) S 184 0 min 0,000 mm 0,0 UV-I 91 W/m 14,5 C 15,3 C 1,6 km/h (1 Bft) 100,00 %
04.09.2016 07:44 15,4 C 95 % 1015,8 hPa 0,0 l/m 0,6 km/h (0 Bft) S 184 0 min 0,000 mm 0,0 UV-I 91 W/m 14,6 C 15,4 C 1,6 km/h (1 Bft) 100,00 %
04.09.2016 07:46 15,5 C 95 % 1015,8 hPa 0,0 l/m 0,0 km/h (0 Bft) S 184 2 min 0,000 mm 0,0 UV-I 118 W/m 14,7 C 15,5 C 0,0 km/h (0 Bft) 100,00 %
04.09.2016 07:48 15,6 C 94 % 1015,9 hPa 0,0 l/m 0,0 km/h (0 Bft) S 184 2 min 0,000 mm 0,0 UV-I 134 W/m 14,6 C 15,6 C 0,0 km/h (0 Bft) 97,87 %
04.09.2016 07:50 15,6 C 94 % 1015,9 hPa 0,0 l/m 0,0 km/h (0 Bft) S 184 2 min 0,000 mm 0,0 UV-I 141 W/m 14,6 C 15,6 C 0,0 km/h (0 Bft) 100,00 %
04.09.2016 07:52 15,7 C 94 % 1015,9 hPa 0,0 l/m 0,0 km/h (0 Bft) S 184 2 min 0,000 mm 0,0 UV-I 145 W/m 14,7 C 15,7 C 0,0 km/h (0 Bft) 100,00 %
04.09.2016 07:54 15,7 C 93 % 1015,9 hPa 0,0 l/m 0,0 km/h (0 Bft) S 184 2 min 0,000 mm 0,0 UV-I 150 W/m 14,6 C 15,7 C 0,0 km/h (0 Bft) 98,00 %
04.09.2016 07:56 15,7 C 93 % 1015,9 hPa 0,0 l/m 0,0 km/h (0 Bft) S 184 2 min 0,000 mm 0,0 UV-I 143 W/m 14,6 C 15,7 C 0,0 km/h (0 Bft) 100,00 %
04.09.2016 07:58 15,8 C 93 % 1015,9 hPa 0,0 l/m 0,0 km/h (0 Bft) S 184 2 min 0,000 mm 0,0 UV-I 150 W/m 14,7 C 15,8 C 0,0 km/h (0 Bft) 100,00 %
04.09.2016 08:00 15,9 C 93 % 1015,9 hPa 0,0 l/m 0,0 km/h (0 Bft) S 184 2 min 0,051 mm 0,0 UV-I 156 W/m 14,8 C 15,9 C 0,0 km/h (0 Bft) 95,74 %
04.09.2016 08:02 16,1 C 92 % 1015,8 hPa 0,0 l/m 0,0 km/h (0 Bft) S 184 2 min 0,000 mm 0,0 UV-I 161 W/m 14,8 C 16,1 C 0,0 km/h (0 Bft) 100,00 %
04.09.2016 08:04 16,2 C 92 % 1015,8 hPa 0,0 l/m 0,0 km/h (0 Bft) S 184 2 min 0,000 mm 0,0 UV-I 166 W/m 14,9 C 16,2 C 0,0 km/h (0 Bft) 95,74 %
04.09.2016 08:06 16,3 C 92 % 1015,8 hPa 0,0 l/m 0,0 km/h (0 Bft) S 184 2 min 0,000 mm 0,0 UV-I 167 W/m 15,0 C 16,3 C 1,6 km/h (1 Bft) 97,87 %
04.09.2016 08:08 16,4 C 92 % 1015,8 hPa 0,0 l/m 0,2 km/h (0 Bft) S 184 2 min 0,000 mm 0,0 UV-I 171 W/m 15,1 C 16,4 C 1,6 km/h (1 Bft) 97,87 %
04.09.2016 08:10 16,6 C 92 % 1015,9 hPa 0,0 l/m 0,1 km/h (0 Bft) S 184 2 min 0,000 mm 0,2 UV-I 175 W/m 15,3 C 16,6 C 1,6 km/h (1 Bft) 100,00 %
04.09.2016 08:12 16,8 C 92 % 1015,8 hPa 0,0 l/m 0,4 km/h (0 Bft) S 184 2 min 0,000 mm 0,5 UV-I 175 W/m 15,5 C 16,8 C 1,6 km/h (1 Bft) 100,00 %
04.09.2016 08:14 17,0 C 91 % 1015,8 hPa 0,0 l/m 0,5 km/h (0 Bft) S 184 2 min 0,000 mm 0,5 UV-I 169 W/m 15,5 C 17,0 C 1,6 km/h (1 Bft) 100,00 %
04.09.2016 08:16 17,2 C 90 % 1015,8 hPa 0,0 l/m 1,3 km/h (1 Bft) S 184 2 min 0,000 mm 0,5 UV-I 166 W/m 15,5 C 17,2 C 3,2 km/h (1 Bft) 100,00 %
04.09.2016 08:18 17,4 C 90 % 1015,9 hPa 0,0 l/m 1,7 km/h (1 Bft) S 184 0 min 0,000 mm 0,5 UV-I 162 W/m 15,7 C 17,4 C 3,2 km/h (1 Bft) 100,00 %
04.09.2016 08:20 17,5 C 89 % 1015,9 hPa 0,0 l/m 2,6 km/h (1 Bft) S 184 0 min 0,000 mm 0,6 UV-I 162 W/m 15,7 C 17,5 C 4,8 km/h (1 Bft) 100,00 %
04.09.2016 08:22 17,6 C 88 % 1015,9 hPa 0,0 l/m 2,3 km/h (1 Bft) S 184 0 min 0,000 mm 0,6 UV-I 162 W/m 15,6 C 17,6 C 4,8 km/h (1 Bft) 100,00 %
04.09.2016 08:24 17,7 C 88 % 1015,9 hPa 0,0 l/m 2,0 km/h (1 Bft) S 184 0 min 0,000 mm 0,6 UV-I 167 W/m 15,7 C 17,7 C 3,2 km/h (1 Bft) 97,44 %
04.09.2016 08:26 17,8 C 88 % 1015,9 hPa 0,0 l/m 1,8 km/h (1 Bft) S 184 0 min 0,000 mm 0,6 UV-I 176 W/m 15,8 C 17,8 C 3,2 km/h (1 Bft) 100,00 %
04.09.2016 08:28 17,8 C 88 % 1015,9 hPa 0,0 l/m 1,9 km/h (1 Bft) S 184 2 min 0,000 mm 0,6 UV-I 189 W/m 15,8 C 17,8 C 3,2 km/h (1 Bft) 95,74 %
04.09.2016 08:30 17,8 C 88 % 1015,9 hPa 0,0 l/m 1,5 km/h (1 Bft) S 184 2 min 0,000 mm 0,7 UV-I 203 W/m 15,8 C 17,8 C 3,2 km/h (1 Bft) 97,87 %
04.09.2016 08:32 17,9 C 87 % 1015,9 hPa 0,0 l/m 1,8 km/h (1 Bft) S 184 2 min 0,000 mm 0,7 UV-I 217 W/m 15,7 C 17,9 C 3,2 km/h (1 Bft) 97,87 %
04.09.2016 08:34 17,9 C 87 % 1015,9 hPa 0,0 l/m 2,2 km/h (1 Bft) S 184 2 min 0,000 mm 0,7 UV-I 231 W/m 15,7 C 17,9 C 3,2 km/h (1 Bft) 97,87 %
04.09.2016 08:36 18,0 C 87 % 1015,9 hPa 0,0 l/m 2,5 km/h (1 Bft) S 185 2 min 0,000 mm 0,8 UV-I 243 W/m 15,8 C 18,0 C 3,2 km/h (1 Bft) 96,00 %
04.09.2016 08:38 18,1 C 87 % 1015,8 hPa 0,0 l/m 2,9 km/h (1 Bft) S 188 2 min 0,000 mm 0,8 UV-I 253 W/m 15,9 C 18,1 C 4,8 km/h (1 Bft) 97,96 %
04.09.2016 08:40 18,3 C 86 % 1015,9 hPa 0,0 l/m 3,0 km/h (1 Bft) S 189 2 min 0,000 mm 0,8 UV-I 264 W/m 15,9 C 18,3 C 4,8 km/h (1 Bft) 93,62 %
04.09.2016 08:42 18,4 C 86 % 1015,9 hPa 0,0 l/m 2,7 km/h (1 Bft) S 190 2 min 0,000 mm 0,8 UV-I 272 W/m 16,0 C 18,4 C 4,8 km/h (1 Bft) 95,74 %
04.09.2016 08:44 18,4 C 85 % 1015,9 hPa 0,0 l/m 2,5 km/h (1 Bft) S 190 2 min 0,000 mm 0,9 UV-I 280 W/m 15,8 C 18,4 C 4,8 km/h (1 Bft) 97,87 %
04.09.2016 08:46 18,4 C 85 % 1015,8 hPa 0,0 l/m 2,4 km/h (1 Bft) S 191 2 min 0,000 mm 0,9 UV-I 288 W/m 15,8 C 18,4 C 4,8 km/h (1 Bft) 95,74 %
04.09.2016 08:48 18,5 C 85 % 1015,8 hPa 0,0 l/m 2,8 km/h (1 Bft) S 191 2 min 0,000 mm 0,9 UV-I 297 W/m 15,9 C 18,5 C 4,8 km/h (1 Bft) 97,96 %
04.09.2016 08:50 18,7 C 85 % 1015,8 hPa 0,0 l/m 3,1 km/h (1 Bft) SW 227 2 min 0,000 mm 1,0 UV-I 304 W/m 16,1 C 18,7 C 4,8 km/h (1 Bft) 95,74 %
04.09.2016 08:52 18,7 C 84 % 1015,8 hPa 0,0 l/m 2,7 km/h (1 Bft) SW 221 2 min 0,000 mm 1,0 UV-I 311 W/m 15,9 C 18,7 C 4,8 km/h (1 Bft) 95,74 %
04.09.2016 08:54 18,8 C 84 % 1015,7 hPa 0,0 l/m 3,1 km/h (1 Bft) S-SW 197 2 min 0,000 mm 1,0 UV-I 317 W/m 16,0 C 18,8 C 4,8 km/h (1 Bft) 97,87 %
04.09.2016 08:56 18,9 C 84 % 1015,7 hPa 0,0 l/m 4,2 km/h (1 Bft) SW 235 2 min 0,000 mm 1,0 UV-I 322 W/m 16,1 C 18,9 C 6,4 km/h (2 Bft) 95,74 %
04.09.2016 08:58 19,0 C 83 % 1015,7 hPa 0,0 l/m 4,7 km/h (1 Bft) S-SW 194 2 min 0,000 mm 1,1 UV-I 328 W/m 16,0 C 19,0 C 8,0 km/h (2 Bft) 97,87 %
04.09.2016 09:00 19,2 C 84 % 1015,7 hPa 0,0 l/m 3,6 km/h (1 Bft) S 189 2 min 0,127 mm 1,1 UV-I 332 W/m 16,4 C 19,2 C 4,8 km/h (1 Bft) 97,87 %
04.09.2016 09:02 19,3 C 83 % 1015,7 hPa 0,0 l/m 1,7 km/h (1 Bft) S 189 2 min 0,000 mm 1,1 UV-I 338 W/m 16,3 C 19,3 C 3,2 km/h (1 Bft) 100,00 %
04.09.2016 09:04 19,3 C 83 % 1015,7 hPa 0,0 l/m 3,3 km/h (1 Bft) S-SW 196 2 min 0,000 mm 1,2 UV-I 343 W/m 16,3 C 19,3 C 4,8 km/h (1 Bft) 100,00 %
04.09.2016 09:06 19,4 C 83 % 1015,7 hPa 0,0 l/m 5,0 km/h (1 Bft) S 180 2 min 0,000 mm 1,2 UV-I 350 W/m 16,4 C 19,4 C 8,0 km/h (2 Bft) 98,00 %
04.09.2016 09:08 19,5 C 82 % 1015,6 hPa 0,0 l/m 2,7 km/h (1 Bft) S 178 2 min 0,000 mm 1,2 UV-I 355 W/m 16,3 C 19,5 C 6,4 km/h (2 Bft) 95,74 %
04.09.2016 09:10 19,7 C 82 % 1015,7 hPa 0,0 l/m 4,4 km/h (1 Bft) S 188 2 min 0,000 mm 1,3 UV-I 360 W/m 16,5 C 19,7 C 6,4 km/h (2 Bft) 95,74 %
04.09.2016 09:12 19,7 C 82 % 1015,6 hPa 0,0 l/m 1,9 km/h (1 Bft) S 188 2 min 0,000 mm 1,3 UV-I 366 W/m 16,5 C 19,7 C 3,2 km/h (1 Bft) 100,00 %
04.09.2016 09:14 19,8 C 82 % 1015,6 hPa 0,0 l/m 2,7 km/h (1 Bft) S-SW 192 2 min 0,000 mm 1,3 UV-I 370 W/m 16,6 C 19,8 C 4,8 km/h (1 Bft) 100,00 %
04.09.2016 09:16 19,9 C 83 % 1015,6 hPa 0,0 l/m 2,6 km/h (1 Bft) S-SW 192 2 min 0,000 mm 1,4 UV-I 375 W/m 16,9 C 19,9 C 4,8 km/h (1 Bft) 97,92 %
04.09.2016 09:18 20,0 C 80 % 1015,5 hPa 0,0 l/m 2,2 km/h (1 Bft) S 189 2 min 0,000 mm 1,4 UV-I 381 W/m 16,4 C 20,0 C 6,4 km/h (2 Bft) 97,87 %
04.09.2016 09:20 20,1 C 80 % 1015,5 hPa 0,0 l/m 2,0 km/h (1 Bft) S-SW 192 2 min 0,000 mm 1,4 UV-I 388 W/m 16,5 C 20,1 C 4,8 km/h (1 Bft) 100,00 %
04.09.2016 09:22 20,1 C 78 % 1015,4 hPa 0,0 l/m 2,1 km/h (1 Bft) S-SW 192 2 min 0,000 mm 1,5 UV-I 393 W/m 16,1 C 20,1 C 4,8 km/h (1 Bft) 100,00 %
04.09.2016 09:24 20,3 C 78 % 1015,4 hPa 0,0 l/m 2,4 km/h (1 Bft) S-SO 165 2 min 0,000 mm 1,5 UV-I 399 W/m 16,3 C 20,3 C 6,4 km/h (2 Bft) 96,00 %
04.09.2016 09:26 20,4 C 80 % 1015,4 hPa 0,0 l/m 1,9 km/h (1 Bft) S-SO 165 2 min 0,000 mm 1,6 UV-I 404 W/m 16,8 C 20,4 C 6,4 km/h (2 Bft) 97,87 %
04.09.2016 09:28 20,7 C 77 % 1015,4 hPa 0,0 l/m 3,4 km/h (1 Bft) SO 130 2 min 0,000 mm 1,6 UV-I 408 W/m 16,5 C 20,7 C 8,0 km/h (2 Bft) 100,00 %
04.09.2016 09:30 20,9 C 77 % 1015,4 hPa 0,0 l/m 6,1 km/h (2 Bft) SO 142 2 min 0,000 mm 1,6 UV-I 414 W/m 16,7 C 20,9 C 9,7 km/h (2 Bft) 97,87 %
04.09.2016 09:32 21,1 C 78 % 1015,4 hPa 0,0 l/m 2,5 km/h (1 Bft) S-SO 165 2 min 0,000 mm 1,7 UV-I 419 W/m 17,1 C 21,1 C 4,8 km/h (1 Bft) 100,00 %
04.09.2016 09:34 21,1 C 75 % 1015,4 hPa 0,0 l/m 1,8 km/h (1 Bft) S-SO 167 2 min 0,000 mm 1,7 UV-I 423 W/m 16,5 C 21,1 C 6,4 km/h (2 Bft) 97,87 %
04.09.2016 09:36 21,1 C 77 % 1015,3 hPa 0,0 l/m 3,3 km/h (1 Bft) S-SO 167 2 min 0,000 mm 1,8 UV-I 429 W/m 16,9 C 21,1 C 6,4 km/h (2 Bft) 100,00 %
04.09.2016 09:38 21,2 C 76 % 1015,4 hPa 0,0 l/m 2,5 km/h (1 Bft) S-SO 153 2 min 0,000 mm 1,8 UV-I 435 W/m 16,8 C 21,2 C 4,8 km/h (1 Bft) 97,87 %
04.09.2016 09:40 21,3 C 75 % 1015,3 hPa 0,0 l/m 4,5 km/h (1 Bft) SO 137 2 min 0,000 mm 1,8 UV-I 439 W/m 16,7 C 21,3 C 8,0 km/h (2 Bft) 100,00 %
04.09.2016 09:42 21,4 C 74 % 1015,3 hPa 0,0 l/m 4,1 km/h (1 Bft) S-SO 147 2 min 0,000 mm 1,9 UV-I 445 W/m 16,6 C 21,4 C 8,0 km/h (2 Bft) 100,00 %
04.09.2016 09:44 21,6 C 74 % 1015,3 hPa 0,0 l/m 3,1 km/h (1 Bft) S-SO 163 2 min 0,000 mm 1,9 UV-I 450 W/m 16,8 C 21,6 C 8,0 km/h (2 Bft) 100,00 %
04.09.2016 09:46 21,6 C 74 % 1015,3 hPa 0,0 l/m 3,5 km/h (1 Bft) SO 138 2 min 0,000 mm 2,0 UV-I 455 W/m 16,8 C 21,6 C 6,4 km/h (2 Bft) 95,74 %
04.09.2016 09:48 21,7 C 74 % 1015,4 hPa 0,0 l/m 4,1 km/h (1 Bft) SO 138 2 min 0,000 mm 2,0 UV-I 459 W/m 16,9 C 21,7 C 6,4 km/h (2 Bft) 100,00 %
04.09.2016 09:50 21,5 C 73 % 1015,4 hPa 0,0 l/m 1,7 km/h (1 Bft) SO 138 2 min 0,000 mm 2,0 UV-I 463 W/m 16,4 C 21,5 C 3,2 km/h (1 Bft) 98,00 %
04.09.2016 09:52 21,4 C 74 % 1015,3 hPa 0,0 l/m 1,4 km/h (1 Bft) SO 138 2 min 0,000 mm 2,1 UV-I 467 W/m 16,6 C 21,4 C 4,8 km/h (1 Bft) 97,87 %
04.09.2016 09:54 21,6 C 74 % 1015,3 hPa 0,0 l/m 1,2 km/h (1 Bft) SO 138 2 min 0,000 mm 2,1 UV-I 471 W/m 16,8 C 21,6 C 3,2 km/h (1 Bft) 100,00 %
04.09.2016 09:56 21,7 C 75 % 1015,2 hPa 0,0 l/m 1,2 km/h (1 Bft) SO 142 2 min 0,000 mm 2,2 UV-I 478 W/m 17,1 C 21,7 C 3,2 km/h (1 Bft) 97,87 %
04.09.2016 09:58 21,7 C 75 % 1015,2 hPa 0,0 l/m 2,9 km/h (1 Bft) SO 140 2 min 0,000 mm 2,2 UV-I 483 W/m 17,1 C 21,7 C 6,4 km/h (2 Bft) 100,00 %
04.09.2016 10:00 21,9 C 73 % 1015,2 hPa 0,0 l/m 4,4 km/h (1 Bft) SO 137 2 min 0,254 mm 2,2 UV-I 487 W/m 16,8 C 21,9 C 6,4 km/h (2 Bft) 100,00 %
04.09.2016 10:02 22,0 C 72 % 1015,2 hPa 0,0 l/m 2,9 km/h (1 Bft) SO 129 2 min 0,000 mm 2,3 UV-I 490 W/m 16,7 C 22,0 C 4,8 km/h (1 Bft) 100,00 %
04.09.2016 10:04 21,9 C 72 % 1015,1 hPa 0,0 l/m 0,4 km/h (0 Bft) SO 129 2 min 0,000 mm 2,3 UV-I 494 W/m 16,6 C 21,9 C 1,6 km/h (1 Bft) 100,00 %
04.09.2016 10:06 22,2 C 74 % 1015,1 hPa 0,0 l/m 3,7 km/h (1 Bft) O-NO 63 2 min 0,000 mm 2,4 UV-I 499 W/m 17,3 C 22,2 C 6,4 km/h (2 Bft) 100,00 %
04.09.2016 10:08 22,3 C 73 % 1015,1 hPa 0,0 l/m 3,0 km/h (1 Bft) O-NO 63 2 min 0,000 mm 2,4 UV-I 504 W/m 17,2 C 22,3 C 4,8 km/h (1 Bft) 100,00 %
04.09.2016 10:10 22,3 C 72 % 1015,1 hPa 0,0 l/m 4,4 km/h (1 Bft) O-NO 69 2 min 0,000 mm 2,5 UV-I 508 W/m 17,0 C 22,3 C 6,4 km/h (2 Bft) 100,00 %
04.09.2016 10:12 22,4 C 74 % 1015,1 hPa 0,0 l/m 3,7 km/h (1 Bft) O-NO 65 2 min 0,000 mm 2,5 UV-I 513 W/m 17,5 C 22,4 C 6,4 km/h (2 Bft) 100,00 %
04.09.2016 10:14 22,4 C 73 % 1015,0 hPa 0,0 l/m 1,1 km/h (1 Bft) O-NO 65 2 min 0,000 mm 2,5 UV-I 517 W/m 17,3 C 22,4 C 4,8 km/h (1 Bft) 100,00 %
04.09.2016 10:16 22,4 C 73 % 1014,9 hPa 0,0 l/m 2,4 km/h (1 Bft) O-NO 65 2 min 0,000 mm 2,6 UV-I 518 W/m 17,3 C 22,4 C 6,4 km/h (2 Bft) 100,00 %
04.09.2016 10:18 22,6 C 71 % 1014,9 hPa 0,0 l/m 4,9 km/h (1 Bft) NO 53 2 min 0,000 mm 2,6 UV-I 521 W/m 17,1 C 22,6 C 8,0 km/h (2 Bft) 97,87 %
04.09.2016 10:20 22,8 C 71 % 1014,9 hPa 0,0 l/m 5,9 km/h (2 Bft) NO 52 2 min 0,000 mm 2,7 UV-I 527 W/m 17,3 C 22,8 C 9,7 km/h (2 Bft) 100,00 %
04.09.2016 10:22 23,0 C 71 % 1014,9 hPa 0,0 l/m 4,4 km/h (1 Bft) NO 51 2 min 0,000 mm 2,7 UV-I 532 W/m 17,4 C 23,0 C 6,4 km/h (2 Bft) 100,00 %
04.09.2016 10:24 23,0 C 70 % 1014,8 hPa 0,0 l/m 3,8 km/h (1 Bft) NO 51 2 min 0,000 mm 2,8 UV-I 537 W/m 17,2 C 23,0 C 6,4 km/h (2 Bft) 97,87 %
04.09.2016 10:26 23,1 C 70 % 1014,8 hPa 0,0 l/m 5,6 km/h (1 Bft) NO 56 2 min 0,000 mm 2,8 UV-I 541 W/m 17,3 C 23,1 C 9,7 km/h (2 Bft) 95,74 %
04.09.2016 10:28 23,1 C 71 % 1014,8 hPa 0,0 l/m 5,8 km/h (2 Bft) NO 52 2 min 0,000 mm 2,9 UV-I 547 W/m 17,5 C 23,1 C 9,7 km/h (2 Bft) 97,37 %
04.09.2016 10:30 23,0 C 69 % 1014,8 hPa 0,0 l/m 2,9 km/h (1 Bft) NO 51 2 min 0,000 mm 2,9 UV-I 549 W/m 17,0 C 23,0 C 6,4 km/h (2 Bft) 97,87 %
04.09.2016 10:32 23,2 C 72 % 1014,7 hPa 0,0 l/m 4,9 km/h (1 Bft) N-NO 12 2 min 0,000 mm 2,9 UV-I 553 W/m 17,9 C 23,2 C 8,0 km/h (2 Bft) 95,74 %
04.09.2016 10:34 23,4 C 69 % 1014,7 hPa 0,0 l/m 5,0 km/h (1 Bft) NO 51 2 min 0,000 mm 3,0 UV-I 556 W/m 17,4 C 23,4 C 8,0 km/h (2 Bft) 97,87 %
04.09.2016 10:36 23,6 C 71 % 1014,7 hPa 0,0 l/m 8,4 km/h (2 Bft) O-NO 59 2 min 0,000 mm 3,0 UV-I 563 W/m 18,0 C 23,0 C 12,9 km/h (3 Bft) 95,74 %
04.09.2016 10:38 23,7 C 70 % 1014,6 hPa 0,0 l/m 8,1 km/h (2 Bft) NO 38 2 min 0,000 mm 3,1 UV-I 567 W/m 17,9 C 23,2 C 9,7 km/h (2 Bft) 95,74 %
04.09.2016 10:40 23,7 C 66 % 1014,6 hPa 0,0 l/m 5,7 km/h (1 Bft) O-NO 57 2 min 0,000 mm 3,1 UV-I 570 W/m 17,0 C 23,7 C 8,0 km/h (2 Bft) 97,87 %
04.09.2016 10:42 23,6 C 68 % 1014,6 hPa 0,0 l/m 4,4 km/h (1 Bft) NO 42 2 min 0,000 mm 3,1 UV-I 574 W/m 17,3 C 23,6 C 8,0 km/h (2 Bft) 95,74 %
04.09.2016 10:44 23,5 C 69 % 1014,6 hPa 0,0 l/m 5,1 km/h (1 Bft) NO 52 2 min 0,000 mm 3,2 UV-I 578 W/m 17,5 C 23,5 C 11,3 km/h (2 Bft) 97,87 %
04.09.2016 10:46 23,5 C 68 % 1014,7 hPa 0,0 l/m 5,1 km/h (1 Bft) O-NO 58 2 min 0,000 mm 3,2 UV-I 582 W/m 17,2 C 23,5 C 8,0 km/h (2 Bft) 95,74 %
04.09.2016 10:48 23,4 C 67 % 1014,7 hPa 0,0 l/m 4,9 km/h (1 Bft) O-NO 69 2 min 0,000 mm 3,3 UV-I 585 W/m 16,9 C 23,4 C 6,4 km/h (2 Bft) 97,87 %
04.09.2016 10:50 23,4 C 67 % 1014,6 hPa 0,0 l/m 3,4 km/h (1 Bft) O-NO 73 2 min 0,000 mm 3,3 UV-I 588 W/m 16,9 C 23,4 C 6,4 km/h (2 Bft) 97,87 %
04.09.2016 10:52 23,6 C 69 % 1014,6 hPa 0,0 l/m 3,0 km/h (1 Bft) O-NO 70 2 min 0,000 mm 3,3 UV-I 591 W/m 17,6 C 23,6 C 4,8 km/h (1 Bft) 97,87 %
04.09.2016 10:54 23,7 C 67 % 1014,6 hPa 0,0 l/m 3,9 km/h (1 Bft) O 90 2 min 0,000 mm 3,4 UV-I 597 W/m 17,2 C 23,7 C 6,4 km/h (2 Bft) 97,87 %
04.09.2016 10:56 23,7 C 66 % 1014,6 hPa 0,0 l/m 2,6 km/h (1 Bft) O-NO 69 2 min 0,000 mm 3,4 UV-I 600 W/m 17,0 C 23,7 C 6,4 km/h (2 Bft) 96,00 %
04.09.2016 10:58 23,9 C 65 % 1014,6 hPa 0,0 l/m 2,3 km/h (1 Bft) O 85 2 min 0,000 mm 3,5 UV-I 605 W/m 16,9 C 23,9 C 6,4 km/h (2 Bft) 97,87 %
04.09.2016 11:00 23,8 C 66 % 1014,6 hPa 0,0 l/m 1,7 km/h (1 Bft) O-SO 111 2 min 0,356 mm 3,5 UV-I 609 W/m 17,1 C 23,8 C 4,8 km/h (1 Bft) 100,00 %
04.09.2016 11:02 24,1 C 65 % 1014,6 hPa 0,0 l/m 4,2 km/h (1 Bft) O 96 2 min 0,000 mm 3,5 UV-I 608 W/m 17,1 C 24,1 C 6,4 km/h (2 Bft) 100,00 %
04.09.2016 11:04 23,9 C 64 % 1014,6 hPa 0,0 l/m 1,5 km/h (1 Bft) O 96 2 min 0,000 mm 3,6 UV-I 614 W/m 16,7 C 23,9 C 3,2 km/h (1 Bft) 100,00 %
04.09.2016 11:06 23,9 C 66 % 1014,6 hPa 0,0 l/m 0,1 km/h (0 Bft) O-NO 66 2 min 0,000 mm 3,6 UV-I 619 W/m 17,1 C 23,9 C 1,6 km/h (1 Bft) 95,74 %
04.09.2016 11:08 24,1 C 67 % 1014,5 hPa 0,0 l/m 3,1 km/h (1 Bft) O-NO 58 2 min 0,000 mm 3,7 UV-I 620 W/m 17,6 C 24,1 C 4,8 km/h (1 Bft) 100,00 %
04.09.2016 11:10 24,3 C 65 % 1014,4 hPa 0,0 l/m 4,9 km/h (1 Bft) NO 55 2 min 0,000 mm 3,7 UV-I 622 W/m 17,3 C 24,3 C 8,0 km/h (2 Bft) 100,00 %
04.09.2016 11:12 24,3 C 63 % 1014,4 hPa 0,0 l/m 2,3 km/h (1 Bft) O-NO 71 2 min 0,000 mm 3,7 UV-I 629 W/m 16,8 C 24,3 C 3,2 km/h (1 Bft) 97,87 %
04.09.2016 11:14 24,3 C 64 % 1014,4 hPa 0,0 l/m 1,2 km/h (1 Bft) O-NO 69 2 min 0,000 mm 3,8 UV-I 635 W/m 17,0 C 24,3 C 3,2 km/h (1 Bft) 97,87 %
04.09.2016 11:16 24,3 C 65 % 1014,3 hPa 0,0 l/m 2,5 km/h (1 Bft) N-NO 32 2 min 0,000 mm 3,8 UV-I 640 W/m 17,3 C 24,3 C 4,8 km/h (1 Bft) 97,87 %
04.09.2016 11:18 24,3 C 66 % 1014,4 hPa 0,0 l/m 2,4 km/h (1 Bft) NO 34 2 min 0,000 mm 3,8 UV-I 639 W/m 17,5 C 24,3 C 4,8 km/h (1 Bft) 100,00 %
04.09.2016 11:20 24,4 C 64 % 1014,3 hPa 0,0 l/m 4,9 km/h (1 Bft) O-NO 69 2 min 0,000 mm 3,1 UV-I 640 W/m 17,1 C 24,4 C 8,0 km/h (2 Bft) 100,00 %
04.09.2016 11:22 24,4 C 63 % 1014,3 hPa 0,0 l/m 1,6 km/h (1 Bft) O-NO 59 2 min 0,000 mm 3,9 UV-I 642 W/m 16,9 C 24,4 C 3,2 km/h (1 Bft) 97,87 %
04.09.2016 11:24 24,5 C 64 % 1014,3 hPa 0,0 l/m 1,9 km/h (1 Bft) N-NO 13 2 min 0,000 mm 3,9 UV-I 648 W/m 17,2 C 24,5 C 3,2 km/h (1 Bft) 95,74 %
04.09.2016 11:26 24,4 C 61 % 1014,3 hPa 0,0 l/m 2,3 km/h (1 Bft) O-SO 119 2 min 0,000 mm 4,0 UV-I 651 W/m 16,4 C 24,4 C 4,8 km/h (1 Bft) 100,00 %
04.09.2016 11:28 24,4 C 63 % 1014,2 hPa 0,0 l/m 1,6 km/h (1 Bft) O-SO 110 2 min 0,000 mm 4,0 UV-I 650 W/m 16,9 C 24,4 C 3,2 km/h (1 Bft) 97,87 %
04.09.2016 11:30 24,6 C 65 % 1014,2 hPa 0,0 l/m 2,6 km/h (1 Bft) N-NO 21 2 min 0,000 mm 4,1 UV-I 660 W/m 17,6 C 24,6 C 6,4 km/h (2 Bft) 100,00 %
04.09.2016 11:32 24,7 C 61 % 1014,2 hPa 0,0 l/m 4,9 km/h (1 Bft) N-NO 22 2 min 0,000 mm 4,1 UV-I 662 W/m 16,7 C 24,7 C 6,4 km/h (2 Bft) 100,00 %
04.09.2016 11:34 24,6 C 61 % 1014,2 hPa 0,0 l/m 3,3 km/h (1 Bft) O-NO 63 2 min 0,000 mm 4,2 UV-I 669 W/m 16,6 C 24,6 C 6,4 km/h (2 Bft) 100,00 %
04.09.2016 11:36 24,5 C 64 % 1014,1 hPa 0,0 l/m 0,4 km/h (0 Bft) O-NO 63 2 min 0,000 mm 4,2 UV-I 677 W/m 17,2 C 24,5 C 1,6 km/h (1 Bft) 100,00 %
04.09.2016 11:38 24,6 C 61 % 1014,1 hPa 0,0 l/m 1,8 km/h (1 Bft) W-NW 284 2 min 0,000 mm 4,2 UV-I 680 W/m 16,6 C 24,6 C 4,8 km/h (1 Bft) 100,00 %
04.09.2016 11:40 24,7 C 59 % 1014,1 hPa 0,0 l/m 1,9 km/h (1 Bft) W 277 2 min 0,000 mm 4,2 UV-I 677 W/m 16,1 C 24,7 C 4,8 km/h (1 Bft) 100,00 %
04.09.2016 11:42 24,7 C 60 % 1014,1 hPa 0,0 l/m 2,2 km/h (1 Bft) S-SW 211 2 min 0,000 mm 4,3 UV-I 677 W/m 16,4 C 24,7 C 4,8 km/h (1 Bft) 100,00 %
04.09.2016 11:44 24,8 C 60 % 1014,0 hPa 0,0 l/m 4,3 km/h (1 Bft) SW 216 2 min 0,000 mm 4,3 UV-I 680 W/m 16,5 C 24,8 C 9,7 km/h (2 Bft) 100,00 %
04.09.2016 11:46 25,1 C 57 % 1014,0 hPa 0,0 l/m 3,9 km/h (1 Bft) S-SO 162 2 min 0,000 mm 4,3 UV-I 686 W/m 16,0 C 25,1 C 8,0 km/h (2 Bft) 100,00 %
04.09.2016 11:48 25,0 C 55 % 1014,0 hPa 0,0 l/m 3,5 km/h (1 Bft) S 171 2 min 0,000 mm 4,4 UV-I 696 W/m 15,3 C 25,0 C 6,4 km/h (2 Bft) 100,00 %
04.09.2016 11:50 24,9 C 56 % 1014,0 hPa 0,0 l/m 3,2 km/h (1 Bft) W-SW 238 2 min 0,000 mm 4,4 UV-I 698 W/m 15,5 C 24,9 C 6,4 km/h (2 Bft) 100,00 %
04.09.2016 11:52 24,9 C 57 % 1014,0 hPa 0,0 l/m 3,1 km/h (1 Bft) W-SW 238 2 min 0,000 mm 4,5 UV-I 699 W/m 15,8 C 24,9 C 6,4 km/h (2 Bft) 100,00 %
04.09.2016 11:54 24,9 C 59 % 1014,0 hPa 0,0 l/m 2,6 km/h (1 Bft) W 276 2 min 0,000 mm 4,5 UV-I 702 W/m 16,3 C 24,9 C 6,4 km/h (2 Bft) 97,87 %
04.09.2016 11:56 24,9 C 58 % 1013,9 hPa 0,0 l/m 2,5 km/h (1 Bft) W-NW 302 2 min 0,000 mm 4,5 UV-I 701 W/m 16,1 C 24,9 C 3,2 km/h (1 Bft) 100,00 %
04.09.2016 11:58 25,1 C 59 % 1013,9 hPa 0,0 l/m 1,0 km/h (0 Bft) W-NW 302 2 min 0,000 mm 4,6 UV-I 714 W/m 16,5 C 25,1 C 3,2 km/h (1 Bft) 100,00 %
04.09.2016 12:00 25,4 C 60 % 1013,9 hPa 0,0 l/m 1,0 km/h (0 Bft) N-NW 341 2 min 0,432 mm 4,7 UV-I 739 W/m 17,1 C 25,4 C 4,8 km/h (1 Bft) 100,00 %
04.09.2016 12:02 25,7 C 56 % 1013,9 hPa 0,0 l/m 1,2 km/h (1 Bft) N-NW 339 2 min 0,000 mm 4,7 UV-I 760 W/m 16,2 C 25,7 C 3,2 km/h (1 Bft) 100,00 %
04.09.2016 12:04 25,7 C 54 % 1013,9 hPa 0,0 l/m 1,6 km/h (1 Bft) W-SW 245 2 min 0,000 mm 4,5 UV-I 705 W/m 15,7 C 25,7 C 9,7 km/h (2 Bft) 100,00 %
04.09.2016 12:06 25,8 C 54 % 1013,9 hPa 0,0 l/m 5,4 km/h (1 Bft) W-SW 239 2 min 0,000 mm 4,7 UV-I 732 W/m 15,8 C 25,8 C 9,7 km/h (2 Bft) 100,00 %
04.09.2016 12:08 25,7 C 53 % 1013,9 hPa 0,0 l/m 1,9 km/h (1 Bft) W-SW 255 2 min 0,000 mm 4,5 UV-I 697 W/m 15,4 C 25,7 C 4,8 km/h (1 Bft) 100,00 %
04.09.2016 12:10 25,4 C 54 % 1013,8 hPa 0,0 l/m 2,6 km/h (1 Bft) W-SW 244 2 min 0,000 mm 3,9 UV-I 478 W/m 15,4 C 25,4 C 6,4 km/h (2 Bft) 100,00 %
04.09.2016 12:12 25,4 C 54 % 1013,8 hPa 0,0 l/m 2,9 km/h (1 Bft) W-SW 246 2 min 0,000 mm 4,1 UV-I 524 W/m 15,4 C 25,4 C 4,8 km/h (1 Bft) 100,00 %
04.09.2016 12:14 25,4 C 55 % 1013,8 hPa 0,0 l/m 2,6 km/h (1 Bft) W-SW 244 2 min 0,000 mm 4,4 UV-I 717 W/m 15,7 C 25,4 C 4,8 km/h (1 Bft) 97,87 %
04.09.2016 12:16 25,6 C 57 % 1013,7 hPa 0,0 l/m 1,7 km/h (1 Bft) S-SW 208 2 min 0,000 mm 5,0 UV-I 827 W/m 16,4 C 25,6 C 8,0 km/h (2 Bft) 100,00 %
04.09.2016 12:18 25,6 C 54 % 1013,7 hPa 0,0 l/m 4,4 km/h (1 Bft) SO 139 2 min 0,000 mm 5,0 UV-I 808 W/m 15,6 C 25,6 C 6,4 km/h (2 Bft) 100,00 %
04.09.2016 12:20 25,7 C 55 % 1013,7 hPa 0,0 l/m 3,2 km/h (1 Bft) O-SO 123 2 min 0,000 mm 4,7 UV-I 756 W/m 16,0 C 25,7 C 6,4 km/h (2 Bft) 97,87 %
04.09.2016 12:22 25,8 C 54 % 1013,6 hPa 0,0 l/m 5,4 km/h (1 Bft) O-SO 108 2 min 0,000 mm 4,3 UV-I 718 W/m 15,8 C 25,8 C 8,0 km/h (2 Bft) 97,87 %
04.09.2016 12:24 25,7 C 56 % 1013,7 hPa 0,0 l/m 2,6 km/h (1 Bft) SO 141 2 min 0,000 mm 3,7 UV-I 424 W/m 16,2 C 25,7 C 6,4 km/h (2 Bft) 97,87 %
04.09.2016 12:26 25,8 C 57 % 1013,7 hPa 0,0 l/m 3,9 km/h (1 Bft) NW 315 2 min 0,000 mm 4,0 UV-I 471 W/m 16,6 C 25,8 C 6,4 km/h (2 Bft) 95,74 %
04.09.2016 12:28 25,8 C 56 % 1013,7 hPa 0,0 l/m 1,6 km/h (1 Bft) SW 232 2 min 0,000 mm 4,1 UV-I 548 W/m 16,3 C 25,8 C 3,2 km/h (1 Bft) 97,87 %
04.09.2016 12:30 25,8 C 55 % 1013,6 hPa 0,0 l/m 3,0 km/h (1 Bft) NO 36 2 min 0,000 mm 4,1 UV-I 586 W/m 16,1 C 25,8 C 6,4 km/h (2 Bft) 95,74 %
04.09.2016 12:32 25,9 C 54 % 1013,6 hPa 0,0 l/m 6,1 km/h (2 Bft) S-SW 206 2 min 0,000 mm 3,9 UV-I 521 W/m 15,9 C 25,9 C 11,3 km/h (2 Bft) 98,00 %
04.09.2016 12:34 26,1 C 51 % 1013,7 hPa 0,0 l/m 4,5 km/h (1 Bft) W-SW 245 2 min 0,000 mm 4,0 UV-I 533 W/m 15,2 C 26,1 C 6,4 km/h (2 Bft) 95,74 %
04.09.2016 12:36 26,0 C 52 % 1013,7 hPa 0,0 l/m 4,2 km/h (1 Bft) SW 228 2 min 0,000 mm 4,0 UV-I 549 W/m 15,4 C 26,0 C 6,4 km/h (2 Bft) 96,00 %
04.09.2016 12:38 25,9 C 54 % 1013,5 hPa 0,0 l/m 3,0 km/h (1 Bft) W 263 2 min 0,000 mm 4,3 UV-I 590 W/m 15,9 C 25,9 C 4,8 km/h (1 Bft) 97,87 %
04.09.2016 12:40 26,1 C 54 % 1013,4 hPa 0,0 l/m 1,5 km/h (1 Bft) W 264 2 min 0,000 mm 4,7 UV-I 713 W/m 16,0 C 26,1 C 4,8 km/h (1 Bft) 97,87 %
04.09.2016 12:42 26,1 C 50 % 1013,4 hPa 0,0 l/m 4,1 km/h (1 Bft) S 180 2 min 0,000 mm 3,9 UV-I 718 W/m 14,8 C 26,1 C 6,4 km/h (2 Bft) 97,37 %
04.09.2016 12:44 26,2 C 51 % 1013,4 hPa 0,0 l/m 2,1 km/h (1 Bft) SW 217 2 min 0,000 mm 4,6 UV-I 712 W/m 15,2 C 26,2 C 4,8 km/h (1 Bft) 95,74 %
04.09.2016 12:46 26,1 C 51 % 1013,4 hPa 0,0 l/m 2,6 km/h (1 Bft) SW 225 2 min 0,000 mm 4,8 UV-I 760 W/m 15,2 C 26,1 C 8,0 km/h (2 Bft) 97,87 %
04.09.2016 12:48 26,1 C 50 % 1013,4 hPa 0,0 l/m 5,1 km/h (1 Bft) SW 229 2 min 0,000 mm 4,9 UV-I 775 W/m 14,8 C 26,1 C 11,3 km/h (2 Bft) 97,92 %
04.09.2016 12:50 26,2 C 50 % 1013,4 hPa 0,0 l/m 7,8 km/h (2 Bft) W-SW 254 2 min 0,000 mm 4,9 UV-I 795 W/m 14,9 C 25,9 C 11,3 km/h (2 Bft) 97,87 %
04.09.2016 12:52 26,1 C 50 % 1013,5 hPa 0,0 l/m 4,0 km/h (1 Bft) W-SW 255 2 min 0,000 mm 4,8 UV-I 766 W/m 14,8 C 26,1 C 8,0 km/h (2 Bft) 97,87 %
04.09.2016 12:54 26,1 C 51 % 1013,4 hPa 0,0 l/m 2,0 km/h (1 Bft) S-SW 201 2 min 0,000 mm 5,0 UV-I 786 W/m 15,2 C 26,1 C 3,2 km/h (1 Bft) 97,87 %
04.09.2016 12:56 26,4 C 51 % 1013,4 hPa 0,0 l/m 5,7 km/h (1 Bft) SW 223 2 min 0,000 mm 5,0 UV-I 793 W/m 15,4 C 26,4 C 9,7 km/h (2 Bft) 98,00 %
04.09.2016 12:58 26,6 C 49 % 1013,4 hPa 0,0 l/m 5,4 km/h (1 Bft) SW 222 2 min 0,000 mm 5,0 UV-I 783 W/m 15,0 C 26,6 C 11,3 km/h (2 Bft) 97,87 %
04.09.2016 13:00 26,6 C 50 % 1013,4 hPa 0,0 l/m 4,6 km/h (1 Bft) SW 228 2 min 0,457 mm 4,0 UV-I 714 W/m 15,3 C 26,6 C 12,9 km/h (3 Bft) 100,00 %
04.09.2016 13:02 26,6 C 51 % 1013,4 hPa 0,0 l/m 6,1 km/h (2 Bft) S 190 2 min 0,000 mm 4,6 UV-I 527 W/m 15,6 C 26,6 C 11,3 km/h (2 Bft) 97,87 %
04.09.2016 13:04 26,6 C 50 % 1013,3 hPa 0,0 l/m 4,2 km/h (1 Bft) S-SW 198 2 min 0,000 mm 4,8 UV-I 727 W/m 15,3 C 26,6 C 8,0 km/h (2 Bft) 100,00 %
04.09.2016 13:06 26,7 C 48 % 1013,3 hPa 0,0 l/m 4,8 km/h (1 Bft) S 176 2 min 0,000 mm 4,9 UV-I 753 W/m 14,8 C 26,7 C 9,7 km/h (2 Bft) 97,87 %
04.09.2016 13:08 26,7 C 48 % 1013,3 hPa 0,0 l/m 5,0 km/h (1 Bft) W-SW 246 2 min 0,000 mm 4,8 UV-I 771 W/m 14,8 C 26,7 C 12,9 km/h (3 Bft) 100,00 %
04.09.2016 13:10 26,7 C 48 % 1013,3 hPa 0,0 l/m 4,6 km/h (1 Bft) S 172 2 min 0,000 mm 4,6 UV-I 689 W/m 14,8 C 26,7 C 9,7 km/h (2 Bft) 100,00 %
04.09.2016 13:12 26,8 C 48 % 1013,2 hPa 0,0 l/m 5,1 km/h (1 Bft) S 169 2 min 0,000 mm 4,7 UV-I 677 W/m 14,9 C 26,8 C 11,3 km/h (2 Bft) 100,00 %
04.09.2016 13:14 26,8 C 48 % 1013,2 hPa 0,0 l/m 5,3 km/h (1 Bft) SW 221 2 min 0,000 mm 5,0 UV-I 813 W/m 14,9 C 26,8 C 11,3 km/h (2 Bft) 100,00 %
04.09.2016 13:16 26,8 C 47 % 1013,2 hPa 0,0 l/m 4,8 km/h (1 Bft) W 270 2 min 0,000 mm 5,0 UV-I 814 W/m 14,5 C 26,8 C 11,3 km/h (2 Bft) 97,87 %
04.09.2016 13:18 26,9 C 48 % 1013,2 hPa 0,0 l/m 3,1 km/h (1 Bft) S 178 2 min 0,000 mm 4,6 UV-I 771 W/m 14,9 C 26,9 C 8,0 km/h (2 Bft) 100,00 %
04.09.2016 13:20 27,1 C 48 % 1013,2 hPa 0,0 l/m 4,6 km/h (1 Bft) W 260 2 min 0,000 mm 4,8 UV-I 800 W/m 15,1 C 27,1 C 11,3 km/h (2 Bft) 100,00 %
04.09.2016 13:22 27,1 C 50 % 1013,2 hPa 0,0 l/m 5,2 km/h (1 Bft) W 275 2 min 0,000 mm 4,8 UV-I 817 W/m 15,8 C 27,1 C 8,0 km/h (2 Bft) 100,00 %
04.09.2016 13:24 27,1 C 49 % 1013,1 hPa 0,0 l/m 3,5 km/h (1 Bft) NW 320 2 min 0,000 mm 4,7 UV-I 751 W/m 15,4 C 27,1 C 6,4 km/h (2 Bft) 97,87 %
04.09.2016 13:26 27,2 C 47 % 1013,2 hPa 0,0 l/m 5,8 km/h (2 Bft) SO 146 2 min 0,000 mm 4,1 UV-I 627 W/m 14,9 C 27,2 C 11,3 km/h (2 Bft) 97,22 %
04.09.2016 13:28 27,2 C 47 % 1013,1 hPa 0,0 l/m 6,7 km/h (2 Bft) S-SW 207 2 min 0,000 mm 3,3 UV-I 490 W/m 14,9 C 27,1 C 11,3 km/h (2 Bft) 100,00 %
04.09.2016 13:30 27,2 C 49 % 1013,1 hPa 0,0 l/m 5,0 km/h (1 Bft) W-SW 240 0 min 0,000 mm 3,1 UV-I 399 W/m 15,5 C 27,2 C 8,0 km/h (2 Bft) 100,00 %
04.09.2016 13:32 27,2 C 46 % 1013,1 hPa 0,0 l/m 10,3 km/h (2 Bft) W-SW 242 2 min 0,000 mm 3,2 UV-I 421 W/m 14,6 C 26,6 C 17,7 km/h (3 Bft) 100,00 %
04.09.2016 13:34 27,2 C 46 % 1013,1 hPa 0,0 l/m 5,4 km/h (1 Bft) S-SW 209 2 min 0,000 mm 4,0 UV-I 485 W/m 14,6 C 27,2 C 12,9 km/h (3 Bft) 97,87 %
04.09.2016 13:36 27,3 C 48 % 1013,1 hPa 0,0 l/m 7,5 km/h (2 Bft) W 259 2 min 0,000 mm 4,7 UV-I 782 W/m 15,3 C 27,1 C 11,3 km/h (2 Bft) 97,87 %
04.09.2016 13:38 27,5 C 47 % 1013,1 hPa 0,0 l/m 8,7 km/h (2 Bft) S 172 2 min 0,000 mm 4,4 UV-I 746 W/m 15,2 C 27,1 C 14,5 km/h (3 Bft) 100,00 %
04.09.2016 13:40 27,7 C 46 % 1013,1 hPa 0,0 l/m 8,7 km/h (2 Bft) S-SW 210 2 min 0,000 mm 4,8 UV-I 824 W/m 15,0 C 27,3 C 19,3 km/h (3 Bft) 100,00 %
04.09.2016 13:42 27,8 C 45 % 1013,1 hPa 0,0 l/m 10,7 km/h (2 Bft) SW 234 2 min 0,000 mm 4,2 UV-I 731 W/m 14,8 C 27,2 C 19,3 km/h (3 Bft) 100,00 %
04.09.2016 13:44 27,7 C 45 % 1013,0 hPa 0,0 l/m 11,6 km/h (2 Bft) S-SW 202 2 min 0,000 mm 3,5 UV-I 512 W/m 14,7 C 26,9 C 17,7 km/h (3 Bft) 100,00 %
04.09.2016 13:46 27,5 C 46 % 1013,0 hPa 0,0 l/m 8,8 km/h (2 Bft) W-SW 255 2 min 0,000 mm 3,3 UV-I 465 W/m 14,8 C 27,1 C 16,1 km/h (3 Bft) 100,00 %
04.09.2016 13:48 27,4 C 46 % 1013,0 hPa 0,0 l/m 9,2 km/h (2 Bft) W-SW 244 2 min 0,000 mm 3,0 UV-I 425 W/m 14,7 C 26,9 C 14,5 km/h (3 Bft) 100,00 %
04.09.2016 13:50 27,4 C 46 % 1012,9 hPa 0,0 l/m 8,5 km/h (2 Bft) SW 225 0 min 0,000 mm 2,8 UV-I 381 W/m 14,7 C 27,0 C 14,5 km/h (3 Bft) 100,00 %
04.09.2016 13:52 27,3 C 45 % 1012,9 hPa 0,0 l/m 7,7 km/h (2 Bft) W-SW 240 0 min 0,000 mm 2,8 UV-I 384 W/m 14,3 C 27,1 C 16,1 km/h (3 Bft) 100,00 %
04.09.2016 13:54 27,3 C 46 % 1012,9 hPa 0,0 l/m 5,8 km/h (2 Bft) W-NW 282 0 min 0,000 mm 2,8 UV-I 378 W/m 14,6 C 27,3 C 9,7 km/h (2 Bft) 100,00 %
04.09.2016 13:56 27,3 C 46 % 1012,9 hPa 0,0 l/m 6,7 km/h (2 Bft) W-SW 238 2 min 0,000 mm 3,4 UV-I 438 W/m 14,6 C 27,2 C 11,3 km/h (2 Bft) 97,87 %
04.09.2016 13:58 27,3 C 46 % 1012,9 hPa 0,0 l/m 7,3 km/h (2 Bft) SW 224 2 min 0,000 mm 3,4 UV-I 492 W/m 14,6 C 27,1 C 12,9 km/h (3 Bft) 100,00 %
04.09.2016 14:00 27,4 C 45 % 1012,9 hPa 0,0 l/m 3,5 km/h (1 Bft) W-SW 247 2 min 0,457 mm 4,2 UV-I 646 W/m 14,4 C 27,4 C 6,4 km/h (2 Bft) 100,00 %
04.09.2016 14:02 27,4 C 47 % 1012,9 hPa 0,0 l/m 7,8 km/h (2 Bft) O-NO 64 2 min 0,000 mm 3,8 UV-I 585 W/m 15,1 C 27,2 C 17,7 km/h (3 Bft) 97,87 %
04.09.2016 14:04 27,3 C 50 % 1012,9 hPa 0,0 l/m 2,3 km/h (1 Bft) N-NW 336 2 min 0,000 mm 3,5 UV-I 501 W/m 15,9 C 27,3 C 6,4 km/h (2 Bft) 100,00 %
04.09.2016 14:06 27,4 C 51 % 1012,9 hPa 0,0 l/m 3,6 km/h (1 Bft) N-NW 335 2 min 0,000 mm 4,2 UV-I 614 W/m 16,3 C 27,4 C 9,7 km/h (2 Bft) 97,96 %
04.09.2016 14:08 27,5 C 51 % 1012,9 hPa 0,0 l/m 5,2 km/h (1 Bft) N-NO 26 2 min 0,000 mm 4,3 UV-I 774 W/m 16,4 C 27,5 C 11,3 km/h (2 Bft) 98,00 %
04.09.2016 14:10 27,7 C 50 % 1012,9 hPa 0,0 l/m 4,2 km/h (1 Bft) NO 44 2 min 0,000 mm 4,0 UV-I 722 W/m 16,3 C 27,7 C 14,5 km/h (3 Bft) 100,00 %
04.09.2016 14:12 27,7 C 49 % 1012,9 hPa 0,0 l/m 5,6 km/h (1 Bft) N 355 2 min 0,000 mm 3,3 UV-I 560 W/m 16,0 C 27,7 C 12,9 km/h (3 Bft) 100,00 %
04.09.2016 14:14 27,4 C 51 % 1012,9 hPa 0,0 l/m 3,7 km/h (1 Bft) W-NW 302 2 min 0,000 mm 3,1 UV-I 475 W/m 16,3 C 27,4 C 8,0 km/h (2 Bft) 100,00 %
04.09.2016 14:16 27,2 C 51 % 1012,9 hPa 0,0 l/m 5,1 km/h (1 Bft) N-NW 347 2 min 0,000 mm 3,1 UV-I 478 W/m 16,2 C 27,2 C 8,0 km/h (2 Bft) 97,87 %
04.09.2016 14:18 27,0 C 51 % 1012,8 hPa 0,0 l/m 5,8 km/h (2 Bft) W-NW 290 2 min 0,000 mm 3,4 UV-I 552 W/m 16,0 C 27,0 C 12,9 km/h (3 Bft) 100,00 %
04.09.2016 14:20 27,0 C 53 % 1012,8 hPa 0,0 l/m 3,9 km/h (1 Bft) NW 309 2 min 0,000 mm 3,3 UV-I 524 W/m 16,6 C 27,0 C 14,5 km/h (3 Bft) 100,00 %
04.09.2016 14:22 27,1 C 53 % 1012,7 hPa 0,0 l/m 3,0 km/h (1 Bft) N-NO 26 2 min 0,000 mm 3,3 UV-I 535 W/m 16,7 C 27,1 C 4,8 km/h (1 Bft) 100,00 %
04.09.2016 14:24 27,2 C 52 % 1012,7 hPa 0,0 l/m 4,5 km/h (1 Bft) N-NO 22 2 min 0,000 mm 3,3 UV-I 523 W/m 16,5 C 27,2 C 12,9 km/h (3 Bft) 97,87 %
04.09.2016 14:26 27,2 C 51 % 1012,7 hPa 0,0 l/m 3,7 km/h (1 Bft) N-NW 336 2 min 0,000 mm 3,4 UV-I 558 W/m 16,2 C 27,2 C 8,0 km/h (2 Bft) 95,74 %
04.09.2016 14:28 27,2 C 52 % 1012,6 hPa 0,0 l/m 2,4 km/h (1 Bft) NW 308 2 min 0,000 mm 3,3 UV-I 495 W/m 16,5 C 27,2 C 4,8 km/h (1 Bft) 95,00 %
04.09.2016 14:30 27,2 C 52 % 1012,6 hPa 0,0 l/m 3,7 km/h (1 Bft) N-NW 347 2 min 0,000 mm 4,0 UV-I 602 W/m 16,5 C 27,2 C 8,0 km/h (2 Bft) 97,87 %
04.09.2016 14:32 27,2 C 53 % 1012,6 hPa 0,0 l/m 5,3 km/h (1 Bft) N-NO 28 2 min 0,000 mm 3,7 UV-I 682 W/m 16,8 C 27,2 C 9,7 km/h (2 Bft) 98,00 %
04.09.2016 14:34 27,3 C 52 % 1012,6 hPa 0,0 l/m 3,3 km/h (1 Bft) NW 305 0 min 0,000 mm 2,7 UV-I 359 W/m 16,6 C 27,3 C 6,4 km/h (2 Bft) 97,56 %
04.09.2016 14:36 27,2 C 52 % 1012,5 hPa 0,0 l/m 3,8 km/h (1 Bft) W-NW 303 2 min 0,000 mm 3,0 UV-I 473 W/m 16,5 C 27,2 C 8,0 km/h (2 Bft) 97,87 %
04.09.2016 14:38 27,2 C 51 % 1012,5 hPa 0,0 l/m 2,7 km/h (1 Bft) NW 309 2 min 0,000 mm 3,3 UV-I 546 W/m 16,2 C 27,2 C 6,4 km/h (2 Bft) 97,87 %
04.09.2016 14:40 27,3 C 52 % 1012,6 hPa 0,0 l/m 3,5 km/h (1 Bft) N-NW 333 2 min 0,000 mm 4,0 UV-I 735 W/m 16,6 C 27,3 C 6,4 km/h (2 Bft) 98,00 %
04.09.2016 14:42 27,4 C 49 % 1012,6 hPa 0,0 l/m 5,9 km/h (2 Bft) W-NW 290 2 min 0,000 mm 3,8 UV-I 682 W/m 15,7 C 27,4 C 12,9 km/h (3 Bft) 97,87 %
04.09.2016 14:44 27,3 C 51 % 1012,6 hPa 0,0 l/m 4,0 km/h (1 Bft) NW 317 2 min 0,000 mm 3,7 UV-I 677 W/m 16,3 C 27,3 C 11,3 km/h (2 Bft) 95,74 %
04.09.2016 14:46 27,4 C 52 % 1012,5 hPa 0,0 l/m 2,4 km/h (1 Bft) W-SW 237 2 min 0,000 mm 2,8 UV-I 729 W/m 16,7 C 27,4 C 6,4 km/h (2 Bft) 97,92 %
04.09.2016 14:48 27,5 C 51 % 1012,5 hPa 0,0 l/m 3,0 km/h (1 Bft) W-NW 291 2 min 0,000 mm 2,3 UV-I 548 W/m 16,4 C 27,5 C 6,4 km/h (2 Bft) 97,87 %
04.09.2016 14:50 27,3 C 49 % 1012,4 hPa 0,0 l/m 2,2 km/h (1 Bft) N-NW 334 0 min 0,000 mm 2,2 UV-I 288 W/m 15,6 C 27,3 C 4,8 km/h (1 Bft) 97,87 %
04.09.2016 14:52 27,1 C 50 % 1012,4 hPa 0,0 l/m 3,9 km/h (1 Bft) W-NW 282 0 min 0,000 mm 2,2 UV-I 312 W/m 15,8 C 27,1 C 11,3 km/h (2 Bft) 95,74 %
04.09.2016 14:54 27,0 C 51 % 1012,4 hPa 0,0 l/m 2,3 km/h (1 Bft) W-NW 287 0 min 0,000 mm 2,3 UV-I 314 W/m 16,0 C 27,0 C 4,8 km/h (1 Bft) 93,62 %
04.09.2016 14:56 26,9 C 51 % 1012,5 hPa 0,0 l/m 5,7 km/h (1 Bft) W-NW 284 0 min 0,000 mm 2,4 UV-I 339 W/m 15,9 C 26,9 C 12,9 km/h (3 Bft) 95,74 %
04.09.2016 14:58 26,8 C 50 % 1012,5 hPa 0,0 l/m 4,2 km/h (1 Bft) W-NW 291 0 min 0,000 mm 2,4 UV-I 325 W/m 15,5 C 26,8 C 6,4 km/h (2 Bft) 100,00 %
04.09.2016 15:00 26,8 C 53 % 1012,4 hPa 0,0 l/m 5,0 km/h (1 Bft) W 267 0 min 0,381 mm 2,6 UV-I 319 W/m 16,4 C 26,8 C 9,7 km/h (2 Bft) 95,74 %
04.09.2016 15:02 26,8 C 50 % 1012,4 hPa 0,0 l/m 7,9 km/h (2 Bft) W-SW 246 0 min 0,000 mm 2,4 UV-I 305 W/m 15,5 C 26,5 C 12,9 km/h (3 Bft) 100,00 %
04.09.2016 15:04 26,8 C 50 % 1012,4 hPa 0,0 l/m 4,6 km/h (1 Bft) W-SW 249 2 min 0,000 mm 3,2 UV-I 421 W/m 15,5 C 26,8 C 8,0 km/h (2 Bft) 98,00 %
04.09.2016 15:06 27,1 C 51 % 1012,3 hPa 0,0 l/m 4,9 km/h (1 Bft) W-SW 238 2 min 0,000 mm 3,3 UV-I 683 W/m 16,1 C 27,1 C 12,9 km/h (3 Bft) 100,00 %
04.09.2016 15:08 27,2 C 49 % 1012,3 hPa 0,0 l/m 7,2 km/h (2 Bft) W-SW 242 2 min 0,000 mm 3,3 UV-I 647 W/m 15,5 C 27,1 C 12,9 km/h (3 Bft) 100,00 %
04.09.2016 15:10 27,4 C 51 % 1012,3 hPa 0,0 l/m 2,6 km/h (1 Bft) W 260 2 min 0,000 mm 3,3 UV-I 675 W/m 16,3 C 27,4 C 4,8 km/h (1 Bft) 100,00 %
04.09.2016 15:12 27,4 C 49 % 1012,3 hPa 0,0 l/m 5,0 km/h (1 Bft) W 271 2 min 0,000 mm 3,2 UV-I 668 W/m 15,7 C 27,4 C 9,7 km/h (2 Bft) 100,00 %
04.09.2016 15:14 27,6 C 49 % 1012,3 hPa 0,0 l/m 4,6 km/h (1 Bft) N-NW 331 2 min 0,000 mm 3,1 UV-I 598 W/m 15,9 C 27,6 C 9,7 km/h (2 Bft) 97,87 %
04.09.2016 15:16 27,6 C 50 % 1012,2 hPa 0,0 l/m 3,0 km/h (1 Bft) N-NW 329 2 min 0,000 mm 2,9 UV-I 557 W/m 16,2 C 27,6 C 6,4 km/h (2 Bft) 100,00 %
04.09.2016 15:18 27,7 C 47 % 1012,2 hPa 0,0 l/m 4,1 km/h (1 Bft) W-NW 283 2 min 0,000 mm 2,9 UV-I 516 W/m 15,3 C 27,7 C 11,3 km/h (2 Bft) 100,00 %
04.09.2016 15:20 27,6 C 45 % 1012,1 hPa 0,0 l/m 4,5 km/h (1 Bft) W 266 2 min 0,000 mm 3,1 UV-I 559 W/m 14,6 C 27,6 C 12,9 km/h (3 Bft) 100,00 %
04.09.2016 15:22 27,7 C 46 % 1012,1 hPa 0,0 l/m 4,0 km/h (1 Bft) W 261 2 min 0,000 mm 3,1 UV-I 638 W/m 15,0 C 27,7 C 11,3 km/h (2 Bft) 97,87 %
04.09.2016 15:24 27,8 C 47 % 1012,0 hPa 0,0 l/m 8,8 km/h (2 Bft) SW 236 2 min 0,000 mm 3,1 UV-I 669 W/m 15,4 C 27,4 C 16,1 km/h (3 Bft) 100,00 %
04.09.2016 15:26 27,8 C 45 % 1012,0 hPa 0,0 l/m 7,3 km/h (2 Bft) W 277 2 min 0,000 mm 2,3 UV-I 654 W/m 14,8 C 27,7 C 11,3 km/h (2 Bft) 100,00 %
04.09.2016 15:28 27,8 C 45 % 1012,1 hPa 0,0 l/m 3,1 km/h (1 Bft) N 9 2 min 0,000 mm 2,6 UV-I 495 W/m 14,8 C 27,8 C 8,0 km/h (2 Bft) 97,87 %
04.09.2016 15:30 27,7 C 47 % 1012,0 hPa 0,0 l/m 3,8 km/h (1 Bft) W 259 2 min 0,000 mm 2,6 UV-I 448 W/m 15,3 C 27,7 C 6,4 km/h (2 Bft) 97,92 %
04.09.2016 15:32 27,6 C 47 % 1012,0 hPa 0,0 l/m 4,5 km/h (1 Bft) N-NW 335 2 min 0,000 mm 2,2 UV-I 388 W/m 15,3 C 27,6 C 9,7 km/h (2 Bft) 100,00 %
04.09.2016 15:34 27,4 C 47 % 1012,0 hPa 0,0 l/m 3,0 km/h (1 Bft) N-NO 20 0 min 0,000 mm 1,9 UV-I 268 W/m 15,1 C 27,4 C 6,4 km/h (2 Bft) 100,00 %
04.09.2016 15:36 27,4 C 47 % 1011,9 hPa 0,0 l/m 2,8 km/h (1 Bft) N-NO 20 0 min 0,000 mm 1,9 UV-I 242 W/m 15,1 C 27,4 C 4,8 km/h (1 Bft) 100,00 %
04.09.2016 15:38 27,4 C 47 % 1011,9 hPa 0,0 l/m 0,5 km/h (0 Bft) N-NO 20 0 min 0,000 mm 1,7 UV-I 242 W/m 15,1 C 27,4 C 1,6 km/h (1 Bft) 97,87 %
04.09.2016 15:40 27,4 C 46 % 1012,0 hPa 0,0 l/m 2,8 km/h (1 Bft) W-SW 251 0 min 0,000 mm 1,8 UV-I 300 W/m 14,7 C 27,4 C 4,8 km/h (1 Bft) 100,00 %
04.09.2016 15:42 27,3 C 47 % 1012,0 hPa 0,0 l/m 2,9 km/h (1 Bft) W-NW 285 0 min 0,000 mm 1,7 UV-I 289 W/m 15,0 C 27,3 C 6,4 km/h (2 Bft) 100,00 %
04.09.2016 15:44 27,3 C 48 % 1011,9 hPa 0,0 l/m 4,4 km/h (1 Bft) SW 220 0 min 0,000 mm 1,6 UV-I 270 W/m 15,3 C 27,3 C 6,4 km/h (2 Bft) 97,92 %
04.09.2016 15:46 27,3 C 47 % 1011,9 hPa 0,0 l/m 3,7 km/h (1 Bft) SW 226 0 min 0,000 mm 1,6 UV-I 253 W/m 15,0 C 27,3 C 8,0 km/h (2 Bft) 100,00 %
04.09.2016 15:48 27,3 C 45 % 1012,0 hPa 0,0 l/m 6,6 km/h (2 Bft) W-SW 243 0 min 0,000 mm 1,6 UV-I 290 W/m 14,3 C 27,3 C 11,3 km/h (2 Bft) 97,37 %
04.09.2016 15:50 27,2 C 46 % 1012,0 hPa 0,0 l/m 7,3 km/h (2 Bft) SW 225 0 min 0,000 mm 1,7 UV-I 298 W/m 14,6 C 27,0 C 14,5 km/h (3 Bft) 97,87 %
04.09.2016 15:52 27,2 C 45 % 1011,9 hPa 0,0 l/m 10,3 km/h (2 Bft) W-NW 302 0 min 0,000 mm 1,7 UV-I 311 W/m 14,2 C 26,6 C 16,1 km/h (3 Bft) 100,00 %
04.09.2016 15:54 27,2 C 46 % 1012,0 hPa 0,0 l/m 5,4 km/h (1 Bft) W 261 2 min 0,000 mm 1,7 UV-I 319 W/m 14,6 C 27,2 C 14,5 km/h (3 Bft) 95,74 %
04.09.2016 15:56 27,2 C 45 % 1011,9 hPa 0,0 l/m 8,4 km/h (2 Bft) W-SW 242 2 min 0,000 mm 1,8 UV-I 403 W/m 14,2 C 26,8 C 14,5 km/h (3 Bft) 100,00 %
04.09.2016 15:58 27,2 C 46 % 1011,9 hPa 0,0 l/m 6,1 km/h (2 Bft) W-SW 250 2 min 0,000 mm 1,9 UV-I 404 W/m 14,6 C 27,2 C 14,5 km/h (3 Bft) 100,00 %
04.09.2016 16:00 27,3 C 47 % 1011,9 hPa 0,0 l/m 5,7 km/h (1 Bft) W-SW 242 2 min 0,000 mm 1,8 UV-I 361 W/m 15,0 C 27,3 C 11,3 km/h (2 Bft) 100,00 %
04.09.2016 16:02 27,3 C 46 % 1011,9 hPa 0,0 l/m 6,1 km/h (2 Bft) SW 222 2 min 0,330 mm 1,7 UV-I 360 W/m 14,6 C 27,3 C 11,3 km/h (2 Bft) 100,00 %
04.09.2016 16:04 27,3 C 45 % 1011,9 hPa 0,0 l/m 9,6 km/h (2 Bft) W 274 2 min 0,000 mm 1,7 UV-I 346 W/m 14,3 C 26,8 C 17,7 km/h (3 Bft) 100,00 %
04.09.2016 16:06 27,2 C 45 % 1011,9 hPa 0,0 l/m 6,5 km/h (2 Bft) S-SW 196 0 min 0,000 mm 1,5 UV-I 281 W/m 14,2 C 27,2 C 12,9 km/h (3 Bft) 97,87 %
04.09.2016 16:08 27,2 C 45 % 1011,9 hPa 0,0 l/m 9,7 km/h (2 Bft) W 273 0 min 0,000 mm 1,5 UV-I 292 W/m 14,2 C 26,6 C 20,9 km/h (4 Bft) 100,00 %
04.09.2016 16:10 27,1 C 46 % 1011,9 hPa 0,0 l/m 10,3 km/h (2 Bft) W 281 0 min 0,000 mm 1,5 UV-I 291 W/m 14,5 C 26,4 C 20,9 km/h (4 Bft) 100,00 %
04.09.2016 16:12 27,1 C 46 % 1011,8 hPa 0,0 l/m 7,4 km/h (2 Bft) W-SW 240 2 min 0,000 mm 1,5 UV-I 300 W/m 14,5 C 26,9 C 16,1 km/h (3 Bft) 100,00 %
04.09.2016 16:14 27,1 C 45 % 1011,9 hPa 0,0 l/m 10,0 km/h (2 Bft) W 273 2 min 0,000 mm 1,4 UV-I 301 W/m 14,1 C 26,5 C 19,3 km/h (3 Bft) 98,00 %
04.09.2016 16:16 27,0 C 46 % 1011,9 hPa 0,0 l/m 10,6 km/h (2 Bft) W-SW 248 2 min 0,000 mm 1,5 UV-I 304 W/m 14,4 C 26,3 C 16,1 km/h (3 Bft) 100,00 %
04.09.2016 16:18 26,9 C 46 % 1011,8 hPa 0,0 l/m 7,1 km/h (2 Bft) W-SW 251 2 min 0,000 mm 1,5 UV-I 304 W/m 14,3 C 26,8 C 14,5 km/h (3 Bft) 100,00 %
04.09.2016 16:20 27,0 C 46 % 1011,8 hPa 0,0 l/m 9,3 km/h (2 Bft) W 269 2 min 0,000 mm 1,5 UV-I 345 W/m 14,4 C 26,5 C 14,5 km/h (3 Bft) 96,00 %
04.09.2016 16:22 27,0 C 46 % 1011,8 hPa 0,0 l/m 7,9 km/h (2 Bft) W-SW 245 2 min 0,000 mm 1,6 UV-I 429 W/m 14,4 C 26,7 C 12,9 km/h (3 Bft) 98,00 %
04.09.2016 16:24 27,1 C 48 % 1011,7 hPa 0,0 l/m 10,2 km/h (2 Bft) SW 230 2 min 0,000 mm 1,5 UV-I 301 W/m 15,1 C 26,5 C 16,1 km/h (3 Bft) 95,74 %
04.09.2016 16:26 27,1 C 44 % 1011,8 hPa 0,0 l/m 14,7 km/h (3 Bft) W-SW 242 2 min 0,000 mm 1,5 UV-I 320 W/m 13,8 C 25,9 C 22,5 km/h (4 Bft) 97,87 %
04.09.2016 16:28 27,1 C 43 % 1011,7 hPa 0,0 l/m 20,9 km/h (4 Bft) W 259 2 min 0,000 mm 1,5 UV-I 316 W/m 13,4 C 25,3 C 33,8 km/h (5 Bft) 94,00 %
04.09.2016 16:30 27,0 C 42 % 1011,7 hPa 0,0 l/m 19,5 km/h (3 Bft) W 269 2 min 0,000 mm 1,4 UV-I 275 W/m 13,0 C 25,3 C 27,4 km/h (4 Bft) 97,37 %
04.09.2016 16:32 26,9 C 44 % 1011,6 hPa 0,0 l/m 14,5 km/h (3 Bft) W 278 0 min 0,000 mm 1,3 UV-I 247 W/m 13,6 C 25,7 C 22,5 km/h (4 Bft) 95,74 %
04.09.2016 16:34 26,9 C 45 % 1011,6 hPa 0,0 l/m 15,6 km/h (3 Bft) W-NW 300 0 min 0,000 mm 1,2 UV-I 235 W/m 13,9 C 25,5 C 25,7 km/h (4 Bft) 97,87 %
04.09.2016 16:36 26,8 C 43 % 1011,6 hPa 0,0 l/m 16,6 km/h (3 Bft) W-SW 250 0 min 0,000 mm 1,1 UV-I 208 W/m 13,2 C 25,3 C 27,4 km/h (4 Bft) 97,87 %
04.09.2016 16:38 26,7 C 42 % 1011,6 hPa 0,0 l/m 18,2 km/h (3 Bft) W 263 0 min 0,000 mm 1,0 UV-I 182 W/m 12,7 C 25,0 C 30,6 km/h (5 Bft) 97,87 %
04.09.2016 16:40 26,6 C 42 % 1011,6 hPa 0,0 l/m 19,0 km/h (3 Bft) W-SW 243 0 min 0,000 mm 0,9 UV-I 159 W/m 12,6 C 24,8 C 29,0 km/h (5 Bft) 95,74 %
04.09.2016 16:42 26,6 C 41 % 1011,6 hPa 0,0 l/m 16,9 km/h (3 Bft) W-SW 254 0 min 0,000 mm 0,7 UV-I 143 W/m 12,2 C 25,0 C 27,4 km/h (4 Bft) 97,92 %
04.09.2016 16:44 26,4 C 42 % 1011,7 hPa 0,0 l/m 14,7 km/h (3 Bft) W-SW 256 0 min 0,000 mm 0,7 UV-I 134 W/m 12,4 C 25,0 C 19,3 km/h (3 Bft) 97,87 %
04.09.2016 16:46 26,3 C 44 % 1011,7 hPa 0,0 l/m 12,8 km/h (3 Bft) W 271 0 min 0,000 mm 0,6 UV-I 134 W/m 13,1 C 25,2 C 22,5 km/h (4 Bft) 93,62 %
04.09.2016 16:48 26,1 C 45 % 1011,7 hPa 0,0 l/m 13,7 km/h (3 Bft) W-SW 239 0 min 0,000 mm 0,7 UV-I 138 W/m 13,2 C 24,8 C 20,9 km/h (4 Bft) 98,00 %
04.09.2016 16:50 25,9 C 46 % 1011,6 hPa 0,0 l/m 13,6 km/h (3 Bft) W 266 0 min 0,000 mm 0,7 UV-I 137 W/m 13,4 C 24,6 C 19,3 km/h (3 Bft) 97,87 %
04.09.2016 16:52 25,8 C 47 % 1011,6 hPa 0,0 l/m 12,2 km/h (2 Bft) W-SW 238 0 min 0,000 mm 0,7 UV-I 134 W/m 13,6 C 24,7 C 17,7 km/h (3 Bft) 100,00 %
04.09.2016 16:54 25,8 C 46 % 1011,6 hPa 0,0 l/m 14,1 km/h (3 Bft) SW 226 0 min 0,000 mm 0,7 UV-I 137 W/m 13,3 C 24,4 C 22,5 km/h (4 Bft) 100,00 %
04.09.2016 16:56 25,7 C 46 % 1011,6 hPa 0,0 l/m 10,8 km/h (2 Bft) SW 236 0 min 0,000 mm 0,7 UV-I 145 W/m 13,2 C 24,8 C 16,1 km/h (3 Bft) 95,74 %
04.09.2016 16:58 25,7 C 45 % 1011,5 hPa 0,0 l/m 13,3 km/h (3 Bft) W-SW 257 0 min 0,000 mm 0,7 UV-I 150 W/m 12,9 C 24,4 C 19,3 km/h (3 Bft) 100,00 %
04.09.2016 17:00 25,7 C 46 % 1011,5 hPa 0,0 l/m 11,7 km/h (2 Bft) W-SW 241 0 min 0,000 mm 0,7 UV-I 151 W/m 13,2 C 24,6 C 17,7 km/h (3 Bft) 100,00 %
04.09.2016 17:02 25,7 C 45 % 1011,4 hPa 0,0 l/m 11,9 km/h (2 Bft) W-SW 257 0 min 0,280 mm 0,6 UV-I 143 W/m 12,9 C 24,6 C 17,7 km/h (3 Bft) 100,00 %
04.09.2016 17:04 25,7 C 46 % 1011,5 hPa 0,0 l/m 8,6 km/h (2 Bft) W-SW 247 0 min 0,000 mm 0,6 UV-I 130 W/m 13,2 C 25,2 C 14,5 km/h (3 Bft) 100,00 %
04.09.2016 17:06 25,7 C 47 % 1011,5 hPa 0,0 l/m 10,3 km/h (2 Bft) SW 233 0 min 0,000 mm 0,5 UV-I 119 W/m 13,5 C 24,9 C 17,7 km/h (3 Bft) 100,00 %
04.09.2016 17:08 25,7 C 46 % 1011,5 hPa 0,0 l/m 11,3 km/h (2 Bft) SW 221 0 min 0,000 mm 0,4 UV-I 108 W/m 13,2 C 24,7 C 19,3 km/h (3 Bft) 97,96 %
04.09.2016 17:10 25,7 C 45 % 1011,5 hPa 0,0 l/m 12,0 km/h (2 Bft) SW 234 0 min 0,000 mm 0,0 UV-I 94 W/m 12,9 C 24,6 C 20,9 km/h (4 Bft) 95,74 %
04.09.2016 17:12 25,7 C 45 % 1011,5 hPa 0,0 l/m 13,7 km/h (3 Bft) SW 221 0 min 0,000 mm 0,0 UV-I 78 W/m 12,9 C 24,3 C 17,7 km/h (3 Bft) 100,00 %
04.09.2016 17:14 25,7 C 46 % 1011,5 hPa 0,0 l/m 11,8 km/h (2 Bft) S-SW 211 0 min 0,000 mm 0,0 UV-I 66 W/m 13,2 C 24,6 C 19,3 km/h (3 Bft) 97,87 %
04.09.2016 17:16 25,6 C 46 % 1011,5 hPa 0,0 l/m 11,7 km/h (2 Bft) SW 215 0 min 0,000 mm 0,0 UV-I 62 W/m 13,1 C 24,5 C 16,1 km/h (3 Bft) 97,87 %
04.09.2016 17:18 25,5 C 47 % 1011,5 hPa 0,0 l/m 9,0 km/h (2 Bft) W-SW 240 0 min 0,000 mm 0,0 UV-I 61 W/m 13,3 C 24,9 C 14,5 km/h (3 Bft) 97,87 %
04.09.2016 17:20 25,4 C 47 % 1011,5 hPa 0,0 l/m 9,6 km/h (2 Bft) W-SW 252 0 min 0,000 mm 0,0 UV-I 58 W/m 13,3 C 24,7 C 17,7 km/h (3 Bft) 100,00 %
04.09.2016 17:22 25,4 C 48 % 1011,5 hPa 0,0 l/m 8,5 km/h (2 Bft) SW 229 0 min 0,000 mm 0,0 UV-I 57 W/m 13,6 C 24,9 C 12,9 km/h (3 Bft) 100,00 %
04.09.2016 17:24 25,3 C 48 % 1011,5 hPa 0,0 l/m 9,8 km/h (2 Bft) W-SW 246 0 min 0,000 mm 0,0 UV-I 59 W/m 13,5 C 24,5 C 16,1 km/h (3 Bft) 100,00 %
04.09.2016 17:26 25,2 C 49 % 1011,5 hPa 0,0 l/m 8,6 km/h (2 Bft) SW 233 0 min 0,000 mm 0,0 UV-I 60 W/m 13,7 C 24,7 C 11,3 km/h (2 Bft) 97,22 %
04.09.2016 17:28 25,2 C 49 % 1011,5 hPa 0,0 l/m 10,3 km/h (2 Bft) W-SW 246 0 min 0,000 mm 0,0 UV-I 57 W/m 13,7 C 24,3 C 16,1 km/h (3 Bft) 100,00 %
04.09.2016 17:30 25,1 C 49 % 1011,4 hPa 0,0 l/m 8,8 km/h (2 Bft) W-NW 293 0 min 0,000 mm 0,0 UV-I 52 W/m 13,6 C 24,5 C 12,9 km/h (3 Bft) 100,00 %
04.09.2016 17:32 25,1 C 50 % 1011,5 hPa 0,0 l/m 6,7 km/h (2 Bft) SW 236 0 min 0,000 mm 0,0 UV-I 47 W/m 13,9 C 25,0 C 11,3 km/h (2 Bft) 100,00 %
04.09.2016 17:34 25,0 C 50 % 1011,5 hPa 0,0 l/m 5,8 km/h (2 Bft) W-SW 252 0 min 0,000 mm 0,0 UV-I 46 W/m 13,8 C 25,0 C 9,7 km/h (2 Bft) 95,74 %
04.09.2016 17:36 25,0 C 50 % 1011,5 hPa 0,0 l/m 5,9 km/h (2 Bft) W-SW 244 0 min 0,000 mm 0,0 UV-I 46 W/m 13,8 C 25,0 C 11,3 km/h (2 Bft) 100,00 %
04.09.2016 17:38 24,9 C 50 % 1011,4 hPa 0,0 l/m 5,1 km/h (1 Bft) W-SW 246 0 min 0,000 mm 0,0 UV-I 50 W/m 13,7 C 24,9 C 6,4 km/h (2 Bft) 97,87 %
04.09.2016 17:40 24,9 C 50 % 1011,4 hPa 0,0 l/m 7,1 km/h (2 Bft) SW 226 0 min 0,000 mm 0,0 UV-I 59 W/m 13,7 C 24,7 C 11,3 km/h (2 Bft) 100,00 %
04.09.2016 17:42 24,9 C 51 % 1011,4 hPa 0,0 l/m 6,4 km/h (2 Bft) SW 226 0 min 0,000 mm 0,0 UV-I 66 W/m 14,1 C 24,9 C 11,3 km/h (2 Bft) 100,00 %
04.09.2016 17:44 24,8 C 50 % 1011,4 hPa 0,0 l/m 5,7 km/h (1 Bft) W-SW 242 0 min 0,000 mm 0,0 UV-I 66 W/m 13,7 C 24,8 C 8,0 km/h (2 Bft) 98,00 %
04.09.2016 17:46 24,8 C 51 % 1011,4 hPa 0,0 l/m 7,3 km/h (2 Bft) SW 233 0 min 0,000 mm 0,0 UV-I 64 W/m 14,0 C 24,6 C 11,3 km/h (2 Bft) 97,87 %
04.09.2016 17:48 24,7 C 51 % 1011,4 hPa 0,0 l/m 6,1 km/h (2 Bft) W-SW 239 0 min 0,000 mm 0,0 UV-I 58 W/m 13,9 C 24,7 C 14,5 km/h (3 Bft) 97,87 %
04.09.2016 17:50 24,7 C 52 % 1011,5 hPa 0,0 l/m 5,6 km/h (1 Bft) W-SW 243 0 min 0,000 mm 0,0 UV-I 53 W/m 14,2 C 24,7 C 8,0 km/h (2 Bft) 100,00 %
04.09.2016 17:52 24,6 C 52 % 1011,5 hPa 0,0 l/m 4,3 km/h (1 Bft) SW 226 0 min 0,000 mm 0,0 UV-I 47 W/m 14,1 C 24,6 C 6,4 km/h (2 Bft) 97,87 %
04.09.2016 17:54 24,6 C 53 % 1011,4 hPa 0,0 l/m 4,8 km/h (1 Bft) SW 227 0 min 0,000 mm 0,0 UV-I 39 W/m 14,4 C 24,6 C 11,3 km/h (2 Bft) 100,00 %
04.09.2016 17:56 24,5 C 53 % 1011,5 hPa 0,0 l/m 6,0 km/h (2 Bft) SW 220 0 min 0,000 mm 0,0 UV-I 34 W/m 14,3 C 24,5 C 9,7 km/h (2 Bft) 100,00 %
04.09.2016 17:58 24,4 C 54 % 1011,4 hPa 0,0 l/m 6,3 km/h (2 Bft) SW 217 0 min 0,000 mm 0,0 UV-I 32 W/m 14,5 C 24,4 C 9,7 km/h (2 Bft) 100,00 %
04.09.2016 18:00 24,3 C 54 % 1011,4 hPa 0,0 l/m 6,3 km/h (2 Bft) SW 226 0 min 0,127 mm 0,0 UV-I 32 W/m 14,4 C 24,3 C 8,0 km/h (2 Bft) 100,00 %
04.09.2016 18:02 24,3 C 55 % 1011,5 hPa 0,0 l/m 6,6 km/h (2 Bft) SW 227 0 min 0,000 mm 0,0 UV-I 34 W/m 14,7 C 24,3 C 9,7 km/h (2 Bft) 97,87 %
04.09.2016 18:04 24,2 C 54 % 1011,5 hPa 0,0 l/m 6,2 km/h (2 Bft) SW 225 0 min 0,000 mm 0,0 UV-I 36 W/m 14,3 C 24,2 C 8,0 km/h (2 Bft) 100,00 %
04.09.2016 18:06 24,2 C 55 % 1011,5 hPa 0,0 l/m 5,4 km/h (1 Bft) SW 229 0 min 0,000 mm 0,0 UV-I 37 W/m 14,6 C 24,2 C 8,0 km/h (2 Bft) 100,00 %
04.09.2016 18:08 24,1 C 55 % 1011,5 hPa 0,0 l/m 4,7 km/h (1 Bft) SW 234 0 min 0,000 mm 0,0 UV-I 37 W/m 14,5 C 24,1 C 6,4 km/h (2 Bft) 100,00 %
04.09.2016 18:10 24,1 C 56 % 1011,5 hPa 0,0 l/m 6,0 km/h (2 Bft) SW 224 0 min 0,000 mm 0,0 UV-I 37 W/m 14,8 C 24,1 C 9,7 km/h (2 Bft) 100,00 %
04.09.2016 18:12 24,0 C 57 % 1011,5 hPa 0,0 l/m 5,1 km/h (1 Bft) SW 232 0 min 0,000 mm 0,0 UV-I 36 W/m 14,9 C 24,0 C 9,7 km/h (2 Bft) 100,00 %
04.09.2016 18:14 23,9 C 56 % 1011,5 hPa 0,0 l/m 5,0 km/h (1 Bft) W-SW 238 0 min 0,000 mm 0,0 UV-I 35 W/m 14,6 C 23,9 C 9,7 km/h (2 Bft) 100,00 %
04.09.2016 18:16 23,9 C 56 % 1011,5 hPa 0,0 l/m 6,7 km/h (2 Bft) W-SW 246 0 min 0,000 mm 0,0 UV-I 36 W/m 14,6 C 23,8 C 11,3 km/h (2 Bft) 95,74 %
04.09.2016 18:18 23,9 C 57 % 1011,5 hPa 0,0 l/m 7,7 km/h (2 Bft) W 263 0 min 0,000 mm 0,0 UV-I 39 W/m 14,9 C 23,5 C 11,3 km/h (2 Bft) 97,87 %
04.09.2016 18:20 23,8 C 56 % 1011,5 hPa 0,0 l/m 6,8 km/h (2 Bft) SW 236 0 min 0,000 mm 0,0 UV-I 39 W/m 14,5 C 23,7 C 11,3 km/h (2 Bft) 97,87 %
04.09.2016 18:22 23,8 C 57 % 1011,5 hPa 0,0 l/m 6,5 km/h (2 Bft) SW 217 0 min 0,000 mm 0,0 UV-I 38 W/m 14,8 C 23,8 C 9,7 km/h (2 Bft) 97,87 %
04.09.2016 18:24 23,8 C 57 % 1011,5 hPa 0,0 l/m 6,2 km/h (2 Bft) SW 230 0 min 0,000 mm 0,0 UV-I 37 W/m 14,8 C 23,8 C 9,7 km/h (2 Bft) 95,74 %
04.09.2016 18:26 23,8 C 57 % 1011,5 hPa 0,0 l/m 5,8 km/h (2 Bft) S-SW 206 0 min 0,000 mm 0,0 UV-I 37 W/m 14,8 C 23,8 C 9,7 km/h (2 Bft) 97,87 %
04.09.2016 18:28 23,8 C 57 % 1011,5 hPa 0,0 l/m 6,3 km/h (2 Bft) W-SW 248 0 min 0,000 mm 0,0 UV-I 38 W/m 14,8 C 23,8 C 9,7 km/h (2 Bft) 97,37 %
04.09.2016 18:30 23,8 C 57 % 1011,5 hPa 0,0 l/m 6,5 km/h (2 Bft) SW 227 0 min 0,000 mm 0,0 UV-I 41 W/m 14,8 C 23,8 C 9,7 km/h (2 Bft) 90,00 %
04.09.2016 18:32 23,8 C 57 % 1011,6 hPa 0,0 l/m 6,5 km/h (2 Bft) S 185 0 min 0,000 mm 0,0 UV-I 45 W/m 14,8 C 23,8 C 9,7 km/h (2 Bft) 97,96 %
04.09.2016 18:34 23,7 C 57 % 1011,6 hPa 0,0 l/m 7,2 km/h (2 Bft) W-SW 242 0 min 0,000 mm 0,0 UV-I 46 W/m 14,7 C 23,5 C 11,3 km/h (2 Bft) 97,87 %
04.09.2016 18:36 23,7 C 57 % 1011,6 hPa 0,0 l/m 7,1 km/h (2 Bft) SW 236 0 min 0,000 mm 0,0 UV-I 43 W/m 14,7 C 23,5 C 11,3 km/h (2 Bft) 97,87 %
04.09.2016 18:38 23,7 C 57 % 1011,5 hPa 0,0 l/m 8,6 km/h (2 Bft) SW 229 0 min 0,000 mm 0,0 UV-I 39 W/m 14,7 C 23,1 C 12,9 km/h (3 Bft) 97,87 %
04.09.2016 18:40 23,7 C 57 % 1011,5 hPa 0,0 l/m 7,5 km/h (2 Bft) SW 225 0 min 0,000 mm 0,0 UV-I 36 W/m 14,7 C 23,4 C 14,5 km/h (3 Bft) 97,87 %
04.09.2016 18:42 23,8 C 57 % 1011,5 hPa 0,0 l/m 8,1 km/h (2 Bft) W-SW 241 0 min 0,000 mm 0,0 UV-I 35 W/m 14,8 C 23,3 C 12,9 km/h (3 Bft) 98,00 %
04.09.2016 18:44 23,7 C 58 % 1011,5 hPa 0,0 l/m 7,9 km/h (2 Bft) W-SW 251 0 min 0,000 mm 0,0 UV-I 35 W/m 14,9 C 23,3 C 11,3 km/h (2 Bft) 97,87 %
04.09.2016 18:46 23,7 C 58 % 1011,5 hPa 0,0 l/m 6,0 km/h (2 Bft) SW 219 0 min 0,000 mm 0,0 UV-I 36 W/m 14,9 C 23,7 C 8,0 km/h (2 Bft) 95,83 %
04.09.2016 18:48 23,6 C 58 % 1011,5 hPa 0,0 l/m 6,5 km/h (2 Bft) S-SW 207 0 min 0,000 mm 0,0 UV-I 37 W/m 14,8 C 23,6 C 11,3 km/h (2 Bft) 97,87 %
04.09.2016 18:50 23,6 C 59 % 1011,5 hPa 0,0 l/m 8,4 km/h (2 Bft) S-SW 208 0 min 0,000 mm 0,0 UV-I 35 W/m 15,1 C 23,0 C 12,9 km/h (3 Bft) 100,00 %
04.09.2016 18:52 23,6 C 58 % 1011,4 hPa 0,0 l/m 7,0 km/h (2 Bft) S-SW 199 0 min 0,000 mm 0,0 UV-I 33 W/m 14,8 C 23,4 C 11,3 km/h (2 Bft) 97,87 %
04.09.2016 18:54 23,6 C 58 % 1011,4 hPa 0,0 l/m 6,8 km/h (2 Bft) S-SW 196 0 min 0,000 mm 0,0 UV-I 32 W/m 14,8 C 23,5 C 9,7 km/h (2 Bft) 100,00 %
04.09.2016 18:56 23,5 C 58 % 1011,4 hPa 0,0 l/m 6,5 km/h (2 Bft) S-SW 203 0 min 0,000 mm 0,0 UV-I 32 W/m 14,7 C 23,5 C 9,7 km/h (2 Bft) 100,00 %
04.09.2016 18:58 23,5 C 58 % 1011,4 hPa 0,0 l/m 5,6 km/h (1 Bft) S-SW 213 0 min 0,000 mm 0,0 UV-I 29 W/m 14,7 C 23,5 C 8,0 km/h (2 Bft) 94,29 %
04.09.2016 19:00 23,5 C 58 % 1011,4 hPa 0,0 l/m 6,6 km/h (2 Bft) S 188 0 min 0,000 mm 0,0 UV-I 27 W/m 14,7 C 23,4 C 9,7 km/h (2 Bft) 100,00 %
04.09.2016 19:02 23,5 C 58 % 1011,3 hPa 0,0 l/m 7,7 km/h (2 Bft) SW 223 0 min 0,076 mm 0,0 UV-I 25 W/m 14,7 C 23,1 C 12,9 km/h (3 Bft) 97,87 %
04.09.2016 19:04 23,5 C 58 % 1011,4 hPa 0,0 l/m 8,6 km/h (2 Bft) S-SW 193 0 min 0,000 mm 0,0 UV-I 23 W/m 14,7 C 22,9 C 12,9 km/h (3 Bft) 100,00 %
04.09.2016 19:06 23,5 C 59 % 1011,4 hPa 0,0 l/m 8,7 km/h (2 Bft) SW 215 0 min 0,000 mm 0,0 UV-I 20 W/m 15,0 C 22,8 C 11,3 km/h (2 Bft) 98,11 %
04.09.2016 19:08 23,4 C 59 % 1011,4 hPa 0,0 l/m 7,8 km/h (2 Bft) S-SW 194 0 min 0,000 mm 0,0 UV-I 18 W/m 14,9 C 23,0 C 11,3 km/h (2 Bft) 100,00 %
04.09.2016 19:10 23,4 C 59 % 1011,3 hPa 0,0 l/m 11,0 km/h (2 Bft) S 180 0 min 0,000 mm 0,0 UV-I 16 W/m 14,9 C 22,2 C 16,1 km/h (3 Bft) 97,96 %
04.09.2016 19:12 23,4 C 59 % 1011,3 hPa 0,0 l/m 10,3 km/h (2 Bft) S 175 0 min 0,000 mm 0,0 UV-I 14 W/m 14,9 C 22,3 C 16,1 km/h (3 Bft) 100,00 %
04.09.2016 19:14 23,4 C 59 % 1011,3 hPa 0,0 l/m 9,0 km/h (2 Bft) S-SW 213 0 min 0,000 mm 0,0 UV-I 13 W/m 14,9 C 22,6 C 12,9 km/h (3 Bft) 100,00 %
04.09.2016 19:16 23,4 C 59 % 1011,4 hPa 0,0 l/m 10,1 km/h (2 Bft) S-SW 199 0 min 0,000 mm 0,0 UV-I 12 W/m 14,9 C 22,4 C 12,9 km/h (3 Bft) 100,00 %
04.09.2016 19:18 23,4 C 60 % 1011,4 hPa 0,0 l/m 7,7 km/h (2 Bft) SW 219 0 min 0,000 mm 0,0 UV-I 11 W/m 15,2 C 23,0 C 11,3 km/h (2 Bft) 100,00 %
04.09.2016 19:20 23,3 C 60 % 1011,4 hPa 0,0 l/m 6,0 km/h (2 Bft) SW 234 0 min 0,000 mm 0,0 UV-I 9 W/m 15,1 C 23,3 C 11,3 km/h (2 Bft) 100,00 %
04.09.2016 19:22 23,3 C 60 % 1011,4 hPa 0,0 l/m 7,6 km/h (2 Bft) S-SW 194 0 min 0,000 mm 0,0 UV-I 9 W/m 15,1 C 22,9 C 12,9 km/h (3 Bft) 97,87 %
04.09.2016 19:24 23,2 C 61 % 1011,4 hPa 0,0 l/m 5,9 km/h (2 Bft) S 190 0 min 0,000 mm 0,0 UV-I 7 W/m 15,3 C 23,2 C 9,7 km/h (2 Bft) 100,00 %
04.09.2016 19:26 23,2 C 61 % 1011,4 hPa 0,0 l/m 6,3 km/h (2 Bft) SW 223 0 min 0,000 mm 0,0 UV-I 7 W/m 15,3 C 23,2 C 9,7 km/h (2 Bft) 100,00 %
04.09.2016 19:28 23,2 C 61 % 1011,4 hPa 0,0 l/m 6,0 km/h (2 Bft) SW 225 0 min 0,000 mm 0,0 UV-I 5 W/m 15,3 C 23,2 C 11,3 km/h (2 Bft) 100,00 %
04.09.2016 19:30 23,1 C 61 % 1011,4 hPa 0,0 l/m 5,7 km/h (1 Bft) SW 229 0 min 0,000 mm 0,0 UV-I 3 W/m 15,2 C 23,1 C 9,7 km/h (2 Bft) 100,00 %
04.09.2016 19:32 23,0 C 62 % 1011,4 hPa 0,0 l/m 6,5 km/h (2 Bft) SW 235 0 min 0,000 mm 0,0 UV-I 0 W/m 15,3 C 23,0 C 11,3 km/h (2 Bft) 100,00 %
04.09.2016 19:34 22,9 C 63 % 1011,4 hPa 0,0 l/m 5,2 km/h (1 Bft) W-SW 252 0 min 0,000 mm 0,0 UV-I 0 W/m 15,5 C 22,9 C 8,0 km/h (2 Bft) 100,00 %
04.09.2016 19:36 22,8 C 62 % 1011,5 hPa 0,0 l/m 5,7 km/h (1 Bft) S-SW 201 0 min 0,000 mm 0,0 UV-I 0 W/m 15,1 C 22,8 C 9,7 km/h (2 Bft) 100,00 %
04.09.2016 19:38 22,8 C 63 % 1011,4 hPa 0,0 l/m 5,4 km/h (1 Bft) SW 226 0 min 0,000 mm 0,0 UV-I 0 W/m 15,4 C 22,8 C 8,0 km/h (2 Bft) 97,87 %
04.09.2016 19:40 22,7 C 63 % 1011,5 hPa 0,0 l/m 4,9 km/h (1 Bft) SW 228 0 min 0,000 mm 0,0 UV-I 0 W/m 15,3 C 22,7 C 8,0 km/h (2 Bft) 100,00 %
04.09.2016 19:42 22,7 C 64 % 1011,4 hPa 0,0 l/m 6,3 km/h (2 Bft) W-SW 240 0 min 0,000 mm 0,0 UV-I 0 W/m 15,5 C 22,7 C 9,7 km/h (2 Bft) 100,00 %
04.09.2016 19:44 22,6 C 64 % 1011,4 hPa 0,0 l/m 6,5 km/h (2 Bft) SW 223 0 min 0,000 mm 0,0 UV-I 0 W/m 15,4 C 22,6 C 9,7 km/h (2 Bft) 97,87 %
04.09.2016 19:46 22,5 C 64 % 1011,5 hPa 0,0 l/m 6,9 km/h (2 Bft) W 264 0 min 0,000 mm 0,0 UV-I 0 W/m 15,3 C 22,3 C 12,9 km/h (3 Bft) 100,00 %
04.09.2016 19:48 22,4 C 64 % 1011,5 hPa 0,0 l/m 7,9 km/h (2 Bft) SW 231 0 min 0,000 mm 0,0 UV-I 0 W/m 15,2 C 21,9 C 11,3 km/h (2 Bft) 100,00 %
04.09.2016 19:50 22,4 C 65 % 1011,5 hPa 0,0 l/m 8,1 km/h (2 Bft) W-SW 248 0 min 0,000 mm 0,0 UV-I 0 W/m 15,5 C 21,8 C 14,5 km/h (3 Bft) 95,74 %
04.09.2016 19:52 22,3 C 64 % 1011,5 hPa 0,0 l/m 7,8 km/h (2 Bft) SW 225 0 min 0,000 mm 0,0 UV-I 0 W/m 15,2 C 21,8 C 11,3 km/h (2 Bft) 100,00 %
04.09.2016 19:54 22,3 C 65 % 1011,5 hPa 0,0 l/m 7,4 km/h (2 Bft) W-SW 237 0 min 0,000 mm 0,0 UV-I 0 W/m 15,4 C 22,0 C 12,9 km/h (3 Bft) 100,00 %
04.09.2016 19:56 22,3 C 65 % 1011,5 hPa 0,0 l/m 7,3 km/h (2 Bft) W-SW 237 0 min 0,000 mm 0,0 UV-I 0 W/m 15,4 C 22,0 C 12,9 km/h (3 Bft) 100,00 %
04.09.2016 19:58 22,3 C 64 % 1011,4 hPa 0,0 l/m 8,8 km/h (2 Bft) W-SW 240 0 min 0,000 mm 0,0 UV-I 0 W/m 15,2 C 21,5 C 12,9 km/h (3 Bft) 95,83 %
04.09.2016 20:00 22,3 C 64 % 1011,4 hPa 0,0 l/m 9,3 km/h (2 Bft) SW 227 0 min 0,051 mm 0,0 UV-I 0 W/m 15,2 C 21,4 C 14,5 km/h (3 Bft) 98,00 %
04.09.2016 20:02 22,3 C 64 % 1011,4 hPa 0,0 l/m 9,1 km/h (2 Bft) W-SW 237 0 min 0,000 mm 0,0 UV-I 0 W/m 15,2 C 21,4 C 12,9 km/h (3 Bft) 100,00 %
04.09.2016 20:04 22,3 C 64 % 1011,5 hPa 0,0 l/m 10,3 km/h (2 Bft) W-SW 238 0 min 0,000 mm 0,0 UV-I 0 W/m 15,2 C 21,1 C 16,1 km/h (3 Bft) 100,00 %
04.09.2016 20:06 22,3 C 64 % 1011,5 hPa 0,0 l/m 9,9 km/h (2 Bft) SW 235 0 min 0,000 mm 0,0 UV-I 0 W/m 15,2 C 21,2 C 14,5 km/h (3 Bft) 100,00 %
04.09.2016 20:08 22,3 C 64 % 1011,5 hPa 0,0 l/m 9,6 km/h (2 Bft) SW 232 0 min 0,000 mm 0,0 UV-I 0 W/m 15,2 C 21,3 C 12,9 km/h (3 Bft) 100,00 %
04.09.2016 20:10 22,3 C 64 % 1011,5 hPa 0,0 l/m 8,6 km/h (2 Bft) SW 221 0 min 0,000 mm 0,0 UV-I 0 W/m 15,2 C 21,6 C 12,9 km/h (3 Bft) 100,00 %
04.09.2016 20:12 22,3 C 63 % 1011,6 hPa 0,0 l/m 9,7 km/h (2 Bft) W-SW 240 0 min 0,000 mm 0,0 UV-I 0 W/m 14,9 C 21,3 C 14,5 km/h (3 Bft) 97,87 %
04.09.2016 20:14 22,3 C 63 % 1011,6 hPa 0,0 l/m 10,2 km/h (2 Bft) SW 229 0 min 0,000 mm 0,0 UV-I 0 W/m 14,9 C 21,1 C 14,5 km/h (3 Bft) 95,74 %
04.09.2016 20:16 22,3 C 63 % 1011,6 hPa 0,0 l/m 10,1 km/h (2 Bft) SW 227 0 min 0,000 mm 0,0 UV-I 0 W/m 14,9 C 21,2 C 14,5 km/h (3 Bft) 97,87 %
04.09.2016 20:18 22,3 C 63 % 1011,6 hPa 0,0 l/m 8,0 km/h (2 Bft) SW 229 0 min 0,000 mm 0,0 UV-I 0 W/m 14,9 C 21,8 C 11,3 km/h (2 Bft) 95,74 %
04.09.2016 20:20 22,3 C 64 % 1011,6 hPa 0,0 l/m 9,0 km/h (2 Bft) SW 216 0 min 0,000 mm 0,0 UV-I 0 W/m 15,2 C 21,5 C 12,9 km/h (3 Bft) 93,62 %
04.09.2016 20:22 22,3 C 64 % 1011,7 hPa 0,0 l/m 9,1 km/h (2 Bft) W-SW 246 0 min 0,000 mm 0,0 UV-I 0 W/m 15,2 C 21,4 C 16,1 km/h (3 Bft) 97,87 %
04.09.2016 20:24 22,2 C 64 % 1011,7 hPa 0,0 l/m 9,7 km/h (2 Bft) W-SW 244 0 min 0,000 mm 0,0 UV-I 0 W/m 15,1 C 21,2 C 12,9 km/h (3 Bft) 97,87 %
04.09.2016 20:26 22,2 C 64 % 1011,7 hPa 0,0 l/m 8,3 km/h (2 Bft) W-SW 249 0 min 0,000 mm 0,0 UV-I 0 W/m 15,1 C 21,6 C 11,3 km/h (2 Bft) 94,74 %
04.09.2016 20:28 22,1 C 65 % 1011,8 hPa 0,0 l/m 7,7 km/h (2 Bft) SW 233 0 min 0,000 mm 0,0 UV-I 0 W/m 15,2 C 21,7 C 9,7 km/h (2 Bft) 97,87 %
04.09.2016 20:30 22,1 C 64 % 1011,7 hPa 0,0 l/m 8,0 km/h (2 Bft) W-SW 244 0 min 0,000 mm 0,0 UV-I 0 W/m 15,0 C 21,6 C 11,3 km/h (2 Bft) 95,74 %
04.09.2016 20:32 22,1 C 65 % 1011,8 hPa 0,0 l/m 7,0 km/h (2 Bft) W-SW 250 0 min 0,000 mm 0,0 UV-I 0 W/m 15,2 C 21,9 C 12,9 km/h (3 Bft) 95,74 %
04.09.2016 20:34 22,0 C 65 % 1011,8 hPa 0,0 l/m 7,4 km/h (2 Bft) W-SW 237 0 min 0,000 mm 0,0 UV-I 0 W/m 15,1 C 21,7 C 11,3 km/h (2 Bft) 95,74 %
04.09.2016 20:36 21,9 C 65 % 1011,8 hPa 0,0 l/m 7,8 km/h (2 Bft) SW 217 0 min 0,000 mm 0,0 UV-I 0 W/m 15,0 C 21,4 C 11,3 km/h (2 Bft) 97,92 %
04.09.2016 20:38 21,9 C 65 % 1011,8 hPa 0,0 l/m 7,3 km/h (2 Bft) SW 236 0 min 0,000 mm 0,0 UV-I 0 W/m 15,0 C 21,6 C 9,7 km/h (2 Bft) 94,00 %
04.09.2016 20:40 21,8 C 65 % 1011,8 hPa 0,0 l/m 7,6 km/h (2 Bft) W-SW 237 0 min 0,000 mm 0,0 UV-I 0 W/m 14,9 C 21,4 C 9,7 km/h (2 Bft) 95,74 %
04.09.2016 20:42 21,8 C 65 % 1011,8 hPa 0,0 l/m 7,3 km/h (2 Bft) SW 229 0 min 0,000 mm 0,0 UV-I 0 W/m 14,9 C 21,5 C 11,3 km/h (2 Bft) 97,87 %
04.09.2016 20:44 21,8 C 65 % 1011,8 hPa 0,0 l/m 7,9 km/h (2 Bft) SW 234 0 min 0,000 mm 0,0 UV-I 0 W/m 14,9 C 21,3 C 12,9 km/h (3 Bft) 97,87 %
04.09.2016 20:46 21,8 C 65 % 1011,8 hPa 0,0 l/m 7,0 km/h (2 Bft) SW 236 0 min 0,000 mm 0,0 UV-I 0 W/m 14,9 C 21,6 C 9,7 km/h (2 Bft) 100,00 %
04.09.2016 20:48 21,8 C 66 % 1011,8 hPa 0,0 l/m 6,2 km/h (2 Bft) SW 229 0 min 0,000 mm 0,0 UV-I 0 W/m 15,2 C 21,8 C 11,3 km/h (2 Bft) 100,00 %
04.09.2016 20:50 21,7 C 66 % 1011,8 hPa 0,0 l/m 7,7 km/h (2 Bft) SW 232 0 min 0,000 mm 0,0 UV-I 0 W/m 15,1 C 21,2 C 12,9 km/h (3 Bft) 100,00 %
04.09.2016 20:52 21,7 C 66 % 1011,8 hPa 0,0 l/m 5,4 km/h (1 Bft) SW 236 0 min 0,000 mm 0,0 UV-I 0 W/m 15,1 C 21,7 C 11,3 km/h (2 Bft) 100,00 %
04.09.2016 20:54 21,7 C 66 % 1011,8 hPa 0,0 l/m 5,4 km/h (1 Bft) SW 227 0 min 0,000 mm 0,0 UV-I 0 W/m 15,1 C 21,7 C 8,0 km/h (2 Bft) 96,77 %
04.09.2016 20:56 21,6 C 66 % 1011,8 hPa 0,0 l/m 5,5 km/h (1 Bft) W-SW 241 0 min 0,000 mm 0,0 UV-I 0 W/m 15,0 C 21,6 C 8,0 km/h (2 Bft) 100,00 %
04.09.2016 20:58 21,6 C 66 % 1011,8 hPa 0,0 l/m 5,0 km/h (1 Bft) S-SW 207 0 min 0,000 mm 0,0 UV-I 0 W/m 15,0 C 21,6 C 8,0 km/h (2 Bft) 100,00 %
04.09.2016 21:00 21,6 C 66 % 1011,9 hPa 0,0 l/m 5,1 km/h (1 Bft) W-SW 242 0 min 0,050 mm 0,0 UV-I 0 W/m 15,0 C 21,6 C 8,0 km/h (2 Bft) 95,74 %
04.09.2016 21:02 21,6 C 67 % 1011,9 hPa 0,0 l/m 7,0 km/h (2 Bft) S-SW 196 0 min 0,000 mm 0,0 UV-I 0 W/m 15,2 C 21,4 C 9,7 km/h (2 Bft) 97,14 %
04.09.2016 21:04 21,5 C 66 % 1011,8 hPa 0,0 l/m 6,0 km/h (2 Bft) S-SW 196 0 min 0,000 mm 0,0 UV-I 0 W/m 14,9 C 21,5 C 9,7 km/h (2 Bft) 98,00 %
04.09.2016 21:06 21,5 C 66 % 1011,9 hPa 0,0 l/m 7,8 km/h (2 Bft) W-SW 246 0 min 0,000 mm 0,0 UV-I 0 W/m 14,9 C 21,0 C 12,9 km/h (3 Bft) 97,87 %
04.09.2016 21:08 21,5 C 66 % 1011,9 hPa 0,0 l/m 7,2 km/h (2 Bft) W-SW 237 0 min 0,000 mm 0,0 UV-I 0 W/m 14,9 C 21,2 C 11,3 km/h (2 Bft) 100,00 %
04.09.2016 21:10 21,5 C 66 % 1011,9 hPa 0,0 l/m 8,3 km/h (2 Bft) W-SW 250 0 min 0,000 mm 0,0 UV-I 0 W/m 14,9 C 20,8 C 12,9 km/h (3 Bft) 100,00 %
04.09.2016 21:12 21,5 C 66 % 1011,9 hPa 0,0 l/m 9,0 km/h (2 Bft) SW 217 0 min 0,000 mm 0,0 UV-I 0 W/m 14,9 C 20,6 C 16,1 km/h (3 Bft) 95,74 %
04.09.2016 21:14 21,5 C 65 % 1011,9 hPa 0,0 l/m 6,5 km/h (2 Bft) SW 228 0 min 0,000 mm 0,0 UV-I 0 W/m 14,6 C 21,5 C 9,7 km/h (2 Bft) 100,00 %
04.09.2016 21:16 21,5 C 65 % 1011,9 hPa 0,0 l/m 7,5 km/h (2 Bft) SW 230 0 min 0,000 mm 0,0 UV-I 0 W/m 14,6 C 21,1 C 11,3 km/h (2 Bft) 97,87 %
04.09.2016 21:18 21,6 C 63 % 1011,9 hPa 0,0 l/m 14,0 km/h (3 Bft) W-SW 238 0 min 0,000 mm 0,0 UV-I 0 W/m 14,2 C 19,4 C 29,0 km/h (5 Bft) 100,00 %
04.09.2016 21:20 21,7 C 62 % 1011,9 hPa 0,0 l/m 18,0 km/h (3 Bft) S-SW 213 0 min 0,000 mm 0,0 UV-I 0 W/m 14,1 C 18,7 C 27,4 km/h (4 Bft) 100,00 %
04.09.2016 21:22 21,8 C 60 % 1011,9 hPa 0,0 l/m 19,1 km/h (3 Bft) W-SW 239 0 min 0,000 mm 0,0 UV-I 0 W/m 13,7 C 18,7 C 27,4 km/h (4 Bft) 100,00 %
04.09.2016 21:24 21,9 C 60 % 1011,9 hPa 0,0 l/m 13,4 km/h (3 Bft) W-SW 248 0 min 0,000 mm 0,0 UV-I 0 W/m 13,8 C 19,9 C 22,5 km/h (4 Bft) 100,00 %
04.09.2016 21:26 22,1 C 59 % 1011,9 hPa 0,0 l/m 15,7 km/h (3 Bft) W 259 0 min 0,000 mm 0,0 UV-I 0 W/m 13,7 C 19,7 C 24,1 km/h (4 Bft) 97,87 %
04.09.2016 21:28 22,2 C 58 % 1011,9 hPa 0,0 l/m 16,8 km/h (3 Bft) S-SW 205 0 min 0,000 mm 0,0 UV-I 0 W/m 13,5 C 19,6 C 24,1 km/h (4 Bft) 100,00 %
04.09.2016 21:30 22,2 C 58 % 1011,9 hPa 0,0 l/m 17,9 km/h (3 Bft) W-SW 241 0 min 0,000 mm 0,0 UV-I 0 W/m 13,5 C 19,4 C 29,0 km/h (5 Bft) 100,00 %
04.09.2016 21:32 22,3 C 57 % 1011,9 hPa 0,0 l/m 18,5 km/h (3 Bft) W-SW 245 0 min 0,000 mm 0,0 UV-I 0 W/m 13,4 C 19,4 C 32,2 km/h (5 Bft) 100,00 %
04.09.2016 21:34 22,3 C 57 % 1011,9 hPa 0,0 l/m 15,8 km/h (3 Bft) W-SW 247 0 min 0,000 mm 0,0 UV-I 0 W/m 13,4 C 19,9 C 22,5 km/h (4 Bft) 97,87 %
04.09.2016 21:36 22,3 C 56 % 1011,9 hPa 0,0 l/m 17,8 km/h (3 Bft) W-SW 256 0 min 0,000 mm 0,0 UV-I 0 W/m 13,1 C 19,5 C 24,1 km/h (4 Bft) 100,00 %
04.09.2016 21:38 22,3 C 56 % 1011,9 hPa 0,0 l/m 18,8 km/h (3 Bft) W-SW 244 0 min 0,000 mm 0,0 UV-I 0 W/m 13,1 C 19,4 C 27,4 km/h (4 Bft) 97,87 %
04.09.2016 21:40 22,3 C 56 % 1011,9 hPa 0,0 l/m 21,9 km/h (4 Bft) S-SW 198 0 min 0,000 mm 0,0 UV-I 0 W/m 13,1 C 18,9 C 33,8 km/h (5 Bft) 97,87 %
04.09.2016 21:42 22,3 C 55 % 1011,9 hPa 0,0 l/m 19,5 km/h (3 Bft) W-SW 238 0 min 0,000 mm 0,0 UV-I 0 W/m 12,8 C 19,3 C 30,6 km/h (5 Bft) 100,00 %
04.09.2016 21:44 22,3 C 55 % 1011,9 hPa 0,0 l/m 17,5 km/h (3 Bft) W-SW 258 0 min 0,000 mm 0,0 UV-I 0 W/m 12,8 C 19,6 C 24,1 km/h (4 Bft) 100,00 %
04.09.2016 21:46 22,3 C 55 % 1011,9 hPa 0,0 l/m 17,5 km/h (3 Bft) S-SW 204 0 min 0,000 mm 0,0 UV-I 0 W/m 12,8 C 19,6 C 25,7 km/h (4 Bft) 95,74 %
04.09.2016 21:48 22,3 C 55 % 1012,1 hPa 0,0 l/m 15,0 km/h (3 Bft) SW 233 0 min 0,000 mm 0,0 UV-I 0 W/m 12,8 C 20,0 C 24,1 km/h (4 Bft) 97,87 %
04.09.2016 21:50 22,3 C 55 % 1012,0 hPa 0,0 l/m 15,5 km/h (3 Bft) S-SW 207 0 min 0,000 mm 0,0 UV-I 0 W/m 12,8 C 19,9 C 25,7 km/h (4 Bft) 100,00 %
04.09.2016 21:52 22,3 C 55 % 1012,1 hPa 0,0 l/m 15,5 km/h (3 Bft) W-SW 254 0 min 0,000 mm 0,0 UV-I 0 W/m 12,8 C 19,9 C 22,5 km/h (4 Bft) 100,00 %
04.09.2016 21:54 22,3 C 55 % 1012,1 hPa 0,0 l/m 14,1 km/h (3 Bft) SW 228 0 min 0,000 mm 0,0 UV-I 0 W/m 12,8 C 20,2 C 22,5 km/h (4 Bft) 96,00 %
04.09.2016 21:56 22,3 C 55 % 1012,1 hPa 0,0 l/m 16,6 km/h (3 Bft) S-SW 213 0 min 0,000 mm 0,0 UV-I 0 W/m 12,8 C 19,7 C 24,1 km/h (4 Bft) 100,00 %
04.09.2016 21:58 22,2 C 56 % 1012,1 hPa 0,0 l/m 14,5 km/h (3 Bft) SW 229 0 min 0,000 mm 0,0 UV-I 0 W/m 13,0 C 20,0 C 24,1 km/h (4 Bft) 100,00 %
04.09.2016 22:00 22,2 C 56 % 1012,1 hPa 0,0 l/m 14,6 km/h (3 Bft) S-SW 209 0 min 0,000 mm 0,0 UV-I 0 W/m 13,0 C 20,0 C 29,0 km/h (5 Bft) 100,00 %
04.09.2016 22:02 22,2 C 56 % 1012,1 hPa 0,0 l/m 16,5 km/h (3 Bft) SW 231 0 min 0,102 mm 0,0 UV-I 0 W/m 13,0 C 19,6 C 30,6 km/h (5 Bft) 100,00 %
04.09.2016 22:04 22,2 C 56 % 1012,1 hPa 0,0 l/m 13,5 km/h (3 Bft) SW 219 0 min 0,000 mm 0,0 UV-I 0 W/m 13,0 C 20,2 C 17,7 km/h (3 Bft) 100,00 %
04.09.2016 22:06 22,1 C 56 % 1012,1 hPa 0,0 l/m 15,9 km/h (3 Bft) SW 223 0 min 0,000 mm 0,0 UV-I 0 W/m 12,9 C 19,6 C 22,5 km/h (4 Bft) 100,00 %
04.09.2016 22:08 22,1 C 57 % 1012,1 hPa 0,0 l/m 14,2 km/h (3 Bft) S-SW 202 0 min 0,000 mm 0,0 UV-I 0 W/m 13,2 C 20,0 C 22,5 km/h (4 Bft) 98,00 %
04.09.2016 22:10 22,0 C 56 % 1012,1 hPa 0,0 l/m 18,1 km/h (3 Bft) W-SW 251 0 min 0,000 mm 0,0 UV-I 0 W/m 12,8 C 19,1 C 27,4 km/h (4 Bft) 100,00 %
04.09.2016 22:12 22,1 C 56 % 1012,1 hPa 0,0 l/m 18,1 km/h (3 Bft) W-SW 248 0 min 0,000 mm 0,0 UV-I 0 W/m 12,9 C 19,2 C 22,5 km/h (4 Bft) 97,87 %
04.09.2016 22:14 22,0 C 56 % 1012,2 hPa 0,0 l/m 17,9 km/h (3 Bft) S-SW 205 0 min 0,000 mm 0,0 UV-I 0 W/m 12,8 C 19,1 C 33,8 km/h (5 Bft) 93,62 %
04.09.2016 22:16 22,1 C 56 % 1012,1 hPa 0,0 l/m 21,8 km/h (4 Bft) SW 220 0 min 0,000 mm 0,0 UV-I 0 W/m 12,9 C 18,7 C 30,6 km/h (5 Bft) 95,74 %
04.09.2016 22:18 22,1 C 56 % 1012,1 hPa 0,0 l/m 17,3 km/h (3 Bft) W-SW 250 0 min 0,000 mm 0,0 UV-I 0 W/m 12,9 C 19,4 C 25,7 km/h (4 Bft) 97,37 %
04.09.2016 22:20 22,1 C 55 % 1012,0 hPa 0,0 l/m 24,7 km/h (4 Bft) W-SW 242 0 min 0,000 mm 0,0 UV-I 0 W/m 12,6 C 18,3 C 38,6 km/h (5 Bft) 100,00 %
04.09.2016 22:22 22,1 C 55 % 1012,1 hPa 0,0 l/m 19,9 km/h (4 Bft) W-SW 242 0 min 0,000 mm 0,0 UV-I 0 W/m 12,6 C 18,9 C 32,2 km/h (5 Bft) 96,72 %
04.09.2016 22:24 22,2 C 54 % 1012,1 hPa 0,0 l/m 23,4 km/h (4 Bft) SW 226 0 min 0,000 mm 0,0 UV-I 0 W/m 12,4 C 18,6 C 35,4 km/h (5 Bft) 97,87 %
04.09.2016 22:26 22,2 C 54 % 1012,1 hPa 0,0 l/m 23,6 km/h (4 Bft) W-SW 250 0 min 0,000 mm 0,0 UV-I 0 W/m 12,4 C 18,5 C 32,2 km/h (5 Bft) 98,00 %
04.09.2016 22:28 22,2 C 54 % 1012,1 hPa 0,0 l/m 26,5 km/h (4 Bft) W-SW 254 0 min 0,000 mm 0,0 UV-I 0 W/m 12,4 C 18,2 C 33,8 km/h (5 Bft) 97,87 %
04.09.2016 22:30 22,2 C 54 % 1012,1 hPa 0,0 l/m 16,3 km/h (3 Bft) W-NW 287 0 min 0,000 mm 0,0 UV-I 0 W/m 12,4 C 19,7 C 22,5 km/h (4 Bft) 95,74 %
04.09.2016 22:32 22,2 C 54 % 1012,2 hPa 0,0 l/m 16,8 km/h (3 Bft) SW 218 0 min 0,000 mm 0,0 UV-I 0 W/m 12,4 C 19,6 C 25,7 km/h (4 Bft) 95,74 %
04.09.2016 22:34 22,1 C 55 % 1012,2 hPa 0,0 l/m 14,1 km/h (3 Bft) W 259 0 min 0,000 mm 0,0 UV-I 0 W/m 12,6 C 20,0 C 20,9 km/h (4 Bft) 97,87 %
04.09.2016 22:36 22,0 C 56 % 1012,2 hPa 0,0 l/m 18,3 km/h (3 Bft) W-SW 241 0 min 0,000 mm 0,0 UV-I 0 W/m 12,8 C 19,1 C 29,0 km/h (5 Bft) 98,00 %
04.09.2016 22:38 21,9 C 56 % 1012,2 hPa 0,0 l/m 17,2 km/h (3 Bft) W-SW 254 0 min 0,000 mm 0,0 UV-I 0 W/m 12,7 C 19,1 C 27,4 km/h (4 Bft) 95,74 %
04.09.2016 22:40 21,8 C 56 % 1012,2 hPa 0,0 l/m 17,0 km/h (3 Bft) W-SW 247 0 min 0,000 mm 0,0 UV-I 0 W/m 12,6 C 19,0 C 27,4 km/h (4 Bft) 95,83 %
04.09.2016 22:42 21,8 C 57 % 1012,2 hPa 0,0 l/m 13,2 km/h (3 Bft) S-SW 194 0 min 0,000 mm 0,0 UV-I 0 W/m 12,9 C 19,8 C 24,1 km/h (4 Bft) 97,14 %
04.09.2016 22:44 21,7 C 57 % 1012,1 hPa 0,0 l/m 15,3 km/h (3 Bft) SW 221 0 min 0,000 mm 0,0 UV-I 0 W/m 12,8 C 19,2 C 19,3 km/h (3 Bft) 97,87 %
04.09.2016 22:46 21,7 C 57 % 1012,2 hPa 0,0 l/m 14,9 km/h (3 Bft) W-SW 256 0 min 0,000 mm 0,0 UV-I 0 W/m 12,8 C 19,3 C 20,9 km/h (4 Bft) 97,96 %
04.09.2016 22:48 21,6 C 57 % 1012,2 hPa 0,0 l/m 16,9 km/h (3 Bft) S-SW 207 0 min 0,000 mm 0,0 UV-I 0 W/m 12,7 C 18,8 C 25,7 km/h (4 Bft) 100,00 %
04.09.2016 22:50 21,6 C 57 % 1012,2 hPa 0,0 l/m 16,3 km/h (3 Bft) W-SW 241 0 min 0,000 mm 0,0 UV-I 0 W/m 12,7 C 18,9 C 25,7 km/h (4 Bft) 97,87 %
04.09.2016 22:52 21,6 C 56 % 1012,2 hPa 0,0 l/m 17,6 km/h (3 Bft) W 271 0 min 0,000 mm 0,0 UV-I 0 W/m 12,4 C 18,7 C 24,1 km/h (4 Bft) 100,00 %
04.09.2016 22:54 21,6 C 56 % 1012,2 hPa 0,0 l/m 16,5 km/h (3 Bft) W 261 0 min 0,000 mm 0,0 UV-I 0 W/m 12,4 C 18,9 C 24,1 km/h (4 Bft) 100,00 %
04.09.2016 22:56 21,5 C 56 % 1012,2 hPa 0,0 l/m 15,6 km/h (3 Bft) W-SW 250 0 min 0,000 mm 0,0 UV-I 0 W/m 12,3 C 18,9 C 24,1 km/h (4 Bft) 100,00 %
04.09.2016 22:58 21,5 C 56 % 1012,3 hPa 0,0 l/m 16,7 km/h (3 Bft) SW 227 0 min 0,000 mm 0,0 UV-I 0 W/m 12,3 C 18,7 C 20,9 km/h (4 Bft) 100,00 %
04.09.2016 23:00 21,4 C 57 % 1012,2 hPa 0,0 l/m 14,6 km/h (3 Bft) SW 221 0 min 0,000 mm 0,0 UV-I 0 W/m 12,5 C 19,0 C 24,1 km/h (4 Bft) 100,00 %
04.09.2016 23:02 21,4 C 56 % 1012,2 hPa 0,0 l/m 21,8 km/h (4 Bft) W-SW 254 0 min 0,127 mm 0,0 UV-I 0 W/m 12,3 C 17,7 C 35,4 km/h (5 Bft) 100,00 %
04.09.2016 23:04 21,5 C 56 % 1012,3 hPa 0,0 l/m 19,9 km/h (4 Bft) W-SW 242 0 min 0,000 mm 0,0 UV-I 0 W/m 12,3 C 18,2 C 29,0 km/h (5 Bft) 100,00 %
04.09.2016 23:06 21,5 C 56 % 1012,3 hPa 0,0 l/m 18,5 km/h (3 Bft) W 269 0 min 0,000 mm 0,0 UV-I 0 W/m 12,3 C 18,4 C 25,7 km/h (4 Bft) 100,00 %
04.09.2016 23:08 21,5 C 55 % 1012,3 hPa 0,0 l/m 20,8 km/h (4 Bft) W-SW 249 0 min 0,000 mm 0,0 UV-I 0 W/m 12,1 C 18,0 C 33,8 km/h (5 Bft) 97,87 %
04.09.2016 23:10 21,5 C 56 % 1012,3 hPa 0,0 l/m 14,5 km/h (3 Bft) W-SW 240 0 min 0,000 mm 0,0 UV-I 0 W/m 12,3 C 19,2 C 24,1 km/h (4 Bft) 100,00 %
04.09.2016 23:12 21,5 C 56 % 1012,4 hPa 0,0 l/m 19,1 km/h (3 Bft) W-SW 250 0 min 0,000 mm 0,0 UV-I 0 W/m 12,3 C 18,3 C 27,4 km/h (4 Bft) 98,00 %
04.09.2016 23:14 21,4 C 56 % 1012,4 hPa 0,0 l/m 17,6 km/h (3 Bft) W-SW 246 0 min 0,000 mm 0,0 UV-I 0 W/m 12,3 C 18,4 C 27,4 km/h (4 Bft) 100,00 %
04.09.2016 23:16 21,4 C 56 % 1012,4 hPa 0,0 l/m 19,3 km/h (3 Bft) W-SW 255 0 min 0,000 mm 0,0 UV-I 0 W/m 12,3 C 18,1 C 25,7 km/h (4 Bft) 100,00 %
04.09.2016 23:18 21,4 C 56 % 1012,3 hPa 0,0 l/m 19,3 km/h (3 Bft) W-SW 253 0 min 0,000 mm 0,0 UV-I 0 W/m 12,3 C 18,1 C 30,6 km/h (5 Bft) 95,83 %
04.09.2016 23:20 21,4 C 57 % 1012,3 hPa 0,0 l/m 20,1 km/h (4 Bft) W-SW 251 0 min 0,000 mm 0,0 UV-I 0 W/m 12,5 C 18,0 C 27,4 km/h (4 Bft) 100,00 %
04.09.2016 23:22 21,4 C 57 % 1012,3 hPa 0,0 l/m 23,5 km/h (4 Bft) W 262 0 min 0,000 mm 0,0 UV-I 0 W/m 12,5 C 17,5 C 32,2 km/h (5 Bft) 97,87 %
04.09.2016 23:24 21,4 C 57 % 1012,3 hPa 0,0 l/m 23,0 km/h (4 Bft) W-NW 291 0 min 0,000 mm 0,0 UV-I 0 W/m 12,5 C 17,6 C 30,6 km/h (5 Bft) 100,00 %
04.09.2016 23:26 21,4 C 57 % 1012,3 hPa 0,0 l/m 19,0 km/h (3 Bft) SW 230 0 min 0,000 mm 0,0 UV-I 0 W/m 12,5 C 18,2 C 29,0 km/h (5 Bft) 100,00 %
04.09.2016 23:28 21,4 C 57 % 1012,3 hPa 0,0 l/m 22,5 km/h (4 Bft) W-SW 242 0 min 0,000 mm 0,0 UV-I 0 W/m 12,5 C 17,6 C 32,2 km/h (5 Bft) 100,00 %
04.09.2016 23:30 21,4 C 57 % 1012,3 hPa 0,0 l/m 21,5 km/h (4 Bft) W-SW 254 0 min 0,000 mm 0,0 UV-I 0 W/m 12,5 C 17,8 C 30,6 km/h (5 Bft) 97,87 %
04.09.2016 23:32 21,3 C 57 % 1012,3 hPa 0,0 l/m 22,5 km/h (4 Bft) W 261 0 min 0,000 mm 0,0 UV-I 0 W/m 12,4 C 17,5 C 29,0 km/h (5 Bft) 100,00 %
04.09.2016 23:34 21,4 C 58 % 1012,3 hPa 0,0 l/m 21,9 km/h (4 Bft) W 259 0 min 0,000 mm 0,0 UV-I 0 W/m 12,8 C 17,7 C 30,6 km/h (5 Bft) 100,00 %
04.09.2016 23:36 21,3 C 58 % 1012,4 hPa 0,0 l/m 19,4 km/h (3 Bft) W-SW 244 0 min 0,000 mm 0,0 UV-I 0 W/m 12,7 C 18,0 C 29,0 km/h (5 Bft) 100,00 %
04.09.2016 23:38 21,3 C 58 % 1012,3 hPa 0,0 l/m 20,0 km/h (4 Bft) W-SW 248 0 min 0,000 mm 0,0 UV-I 0 W/m 12,7 C 17,9 C 30,6 km/h (5 Bft) 97,87 %
04.09.2016 23:40 21,3 C 59 % 1012,3 hPa 0,0 l/m 17,6 km/h (3 Bft) W-SW 248 0 min 0,000 mm 0,0 UV-I 0 W/m 13,0 C 18,3 C 24,1 km/h (4 Bft) 100,00 %
04.09.2016 23:42 21,3 C 59 % 1012,3 hPa 0,0 l/m 19,9 km/h (4 Bft) W-SW 256 0 min 0,000 mm 0,0 UV-I 0 W/m 13,0 C 17,9 C 25,7 km/h (4 Bft) 100,00 %
04.09.2016 23:44 21,2 C 59 % 1012,3 hPa 0,0 l/m 16,6 km/h (3 Bft) SW 218 0 min 0,000 mm 0,0 UV-I 0 W/m 12,9 C 18,4 C 22,5 km/h (4 Bft) 97,87 %
04.09.2016 23:46 21,2 C 60 % 1012,4 hPa 0,0 l/m 13,8 km/h (3 Bft) SW 236 0 min 0,000 mm 0,0 UV-I 0 W/m 13,1 C 19,0 C 27,4 km/h (4 Bft) 97,87 %
04.09.2016 23:48 21,1 C 61 % 1012,3 hPa 0,0 l/m 14,2 km/h (3 Bft) W-SW 238 0 min 0,000 mm 0,0 UV-I 0 W/m 13,3 C 18,8 C 20,9 km/h (4 Bft) 98,00 %
04.09.2016 23:50 21,0 C 61 % 1012,4 hPa 0,0 l/m 16,0 km/h (3 Bft) SW 226 0 min 0,000 mm 0,0 UV-I 0 W/m 13,2 C 18,2 C 24,1 km/h (4 Bft) 98,00 %
04.09.2016 23:52 20,9 C 62 % 1012,3 hPa 0,0 l/m 21,1 km/h (4 Bft) SW 218 0 min 0,000 mm 0,0 UV-I 0 W/m 13,3 C 17,2 C 30,6 km/h (5 Bft) 100,00 %
04.09.2016 23:54 20,9 C 62 % 1012,4 hPa 0,0 l/m 20,5 km/h (4 Bft) SW 231 0 min 0,000 mm 0,0 UV-I 0 W/m 13,3 C 17,3 C 33,8 km/h (5 Bft) 97,87 %
04.09.2016 23:56 20,8 C 62 % 1012,4 hPa 0,0 l/m 22,5 km/h (4 Bft) W-SW 258 0 min 0,000 mm 0,0 UV-I 0 W/m 13,2 C 16,8 C 38,6 km/h (5 Bft) 97,92 %
04.09.2016 23:58 20,8 C 63 % 1012,4 hPa 0,0 l/m 24,9 km/h (4 Bft) W-SW 257 0 min 0,000 mm 0,0 UV-I 0 W/m 13,5 C 16,5 C 41,8 km/h (6 Bft) 100,00 %
_ Min-Zeit 07:12 16:42 19:02 - 02:00 - - - - - - 23:08 07:12 02:00 18:30
Minimum _ 14,2 C 41 % 1011,3 hPa - 0,0 km/h (0 Bft) - - - - - - 12,1 C 14,2 C 0,0 km/h (0 Bft) 90,00 %
_ Max-Zeit 13:42 06:34 00:12 00:00 22:28 - - 07:46 13:00 12:16 12:16 10:36 15:28 23:58 00:08
Maximum _ 27,8 C 95 % 1016,4 hPa 0,0 l/m 26,5 km/h
W-SW (4 Bft)
- - 2 min 0,457 mm 5,0 UV-I 827 W/m 18,0 C 27,8 C 41,8 km/h
SW (6 Bft)
100,00 %
Durchschnitt _ 21,3 C 69 % 1013,8 hPa #0,0 l/m 5,6 km/h (1 Bft) W-SW - #7:46 h #3,683 mm 2,7 UV-I 348 W/m 14,9 C 20,8 C 9,2 km/h (2 Bft) 98,50 %